           , 1.998,  2.145,  2.293,  2.441,  2.589,  2.736,  2.884,  3.032,  3.179,  3.327,  3.475,  3.623,  3.770,  3.918,  4.066,  4.213,  4.361,  4.509,  4.657,  4.804,  4.952,  5.100,  5.248,  5.395,  5.543,  5.691,  5.838,  5.986,  6.134,  6.282,  6.429,  6.577,  6.725,  6.872,  7.020,  7.168,  7.316,  7.463,  7.611,  7.759,  7.907,  8.054,  8.202,  8.350,  8.497,  8.645,  8.793,  8.941,  9.088,  9.236,  9.384,  9.531,  9.679,  9.827,  9.975, 10.122, 10.270, 10.418, 10.565, 10.713, 10.861, 11.009, 11.156, 11.304, 11.452, 11.600, 11.747, 11.895, 12.043, 12.190, 12.338, 12.486, 12.634, 12.781, 12.929, 13.077, 13.224, 13.372, 13.520, 13.668, 13.815, 13.963, 14.111, 14.259, 14.406, 14.554, 14.702, 14.849, 14.997, 15.145, 15.293, 15.440, 15.588, 15.736, 15.883, 16.031, 16.179, 16.327, 16.474, 16.622, 16.770, 16.917, 17.065, 17.213, 17.361, 17.508, 17.656, 17.804, 17.952, 18.099, 18.247, 18.395, 18.542, 18.690, 18.838, 18.986, 19.133, 19.281, 19.429, 19.576
1994/08/26 00:05,   -0.4,   -0.1,    0.5,    0.4,    0.7,    0.8,    0.9,    0.7,    2.4,    4.4,    5.3,    5.0,    3.6,    2.7,    1.0,    0.5,    0.5,    0.6,    2.0,    1.9,    2.3,    1.8,    3.4,    3.4,    3.3,    1.6,    1.1,    0.8,    0.7,    0.8,    0.7,    0.5,    1.1,    1.4,    2.2,    2.7,    2.3,    2.0,    1.8,    1.8,    2.4,    2.6,    1.9,    0.9,    0.6,    0.6,    0.7,    0.4,   -0.4,   -0.7,   -0.5,   -1.1,   -1.3,   -0.2,    0.8,    1.3,    1.9,    1.4,    1.6,    1.3,   -0.4,   -3.0,   -5.5,   -5.7,   -5.2,   -5.8,   -5.6,   -5.7,   -5.5,   -6.3,   -6.7,   -6.9,   -5.5,   -8.4,   -8.5,   -7.7,   -7.0,   -2.9,   -0.8,   -0.5,    0.4,   -2.2,   -4.5,   -6.9,   -2.3,   -3.7,   -1.9,   -1.0,   -0.4,  999.0,   -1.1,    0.2,  999.0,  999.0,   -1.3,   -1.4,  999.0,  999.0,   -1.9,  999.0,   -1.5,  999.0,   -5.3,   -4.1,  999.0,    0.7,   -1.9,  999.0,  999.0,  999.0,  999.0,  999.0,  999.0,  999.0,  999.0,  999.0,  999.0,  999.0,  999.0,  999.0
1994/08/26 00:15,    0.0,    0.1,    0.3,    1.0,    1.0,    0.6,    0.7,    0.8,    2.3,    4.6,    5.9,    5.6,    4.1,    3.1,    0.7,    0.7,    0.5,    1.8,  999.0,    2.5,    2.0,    2.8,    3.3,    3.3,    3.1,    1.4,    1.1,    0.9,    1.0,    0.9,    0.7,    0.7,    1.2,    2.5,    3.5,    3.9,    2.6,    2.0,    1.8,    2.2,    2.4,    2.8,    1.2,    0.9,    0.5,    0.8,    0.9,    0.5,   -0.3,   -0.7,   -0.8,   -1.3,   -1.3,   -0.0,    0.6,    1.6,    2.3,    0.9,    1.2,   -0.1,   -2.5,   -4.8,   -6.5,   -5.8,   -6.0,   -6.1,   -6.4,   -6.5,   -6.6,   -6.8,   -7.2,   -7.2,   -4.4,   -7.9,   -7.1,   -4.1,   -6.5,   -2.7,   -0.8,   -0.3,   -1.4,   -1.7,   -4.0,   -6.0,   -3.6,   -3.6,   -0.8,    0.8,   -0.4,   -0.9,   -0.1,   -1.6,   -1.7,   -0.8,   -1.2,   -1.0,  999.0,  999.0,  999.0,   -2.8,   -2.1,  999.0,   -4.0,   -2.4,   -2.8,    0.4,   -1.5,   -4.2,   -3.3,  999.0,  999.0,  999.0,  999.0,  999.0,   -7.2,   -8.2,  999.0,  999.0,  999.0,  999.0
1994/08/26 00:25,   -0.8,   -0.5,    0.3,    0.9,    1.2,    0.8,    0.7,    0.9,    2.8,    5.1,    6.7,    6.5,    5.0,    3.6,    0.8,    1.0,    0.9,    1.0,    2.7,    2.2,    1.7,    2.2,    2.9,    2.6,    2.6,    1.5,    1.0,    0.7,    0.9,    0.8,    0.6,    0.7,    1.0,    2.4,    3.1,    4.0,    1.8,    1.3,    1.4,    1.4,    2.0,    2.1,    0.9,    0.8,    0.3,    0.6,    0.7,    0.4,   -0.2,   -0.6,   -0.7,   -0.9,   -1.2,   -0.4,    0.5,    2.1,    2.5,    1.5,    1.5,   -0.4,   -2.9,   -5.1,   -5.4,   -5.0,   -5.0,   -4.8,   -5.8,   -5.3,   -5.5,   -6.4,   -6.3,   -6.0,   -4.7,   -7.7,   -4.9,   -2.6,   -5.1,   -1.4,   -0.5,   -0.3,    0.8,   -2.8,   -4.7,   -5.9,   -2.1,   -2.0,   -1.0,   -1.1,    0.5,    0.5,   -1.1,   -1.0,   -0.4,   -0.3,   -0.0,    0.1,  999.0,  999.0,   -0.9,   -1.4,   -1.1,  999.0,  999.0,   -3.6,   -1.4,   -0.4,   -0.4,   -3.3,   -4.4,   -2.8,  999.0,  999.0,  999.0,  999.0,  999.0,  999.0,  999.0,  999.0,   -2.4,   -5.4
1994/08/26 00:35,   -0.5,    0.4,    0.4,    0.7,    1.9,    1.1,    0.2,    0.2,    2.2,    4.6,    5.7,    5.9,    4.2,    3.2,    0.6,    1.0,    1.6,    1.2,    2.6,  999.0,    2.5,    2.7,    3.6,    1.3,    2.4,    1.2,    0.6,    0.6,    0.7,    0.4,    0.2,   -0.3,    0.2,    1.0,    1.0,    1.3,    1.0,    0.7,    0.9,    0.9,    1.1,    1.0,    0.9,    0.7,    0.8,    0.8,    0.8,    0.7,    0.3,   -0.3,   -0.6,   -0.8,   -1.0,   -0.0,    0.7,    2.3,    3.0,    3.1,    1.5,    0.9,   -2.3,   -4.3,   -4.6,   -3.1,   -4.5,   -4.6,   -4.5,   -5.5,   -6.1,   -6.3,   -6.1,   -6.4,   -3.8,   -7.5,   -5.3,   -1.7,   -5.3,   -1.5,   -1.3,   -0.1,    0.4,   -1.5,   -3.5,   -4.6,   -1.5,   -1.5,    0.1,    0.5,   -0.2,   -1.1,   -0.7,    0.4,  999.0,    0.3,   -0.4,   -0.5,   -1.4,  999.0,   -1.8,   -1.0,   -0.8,  999.0,  999.0,   -1.6,   -2.0,   -4.6,    0.0,   -2.4,   -2.9,   -3.3,  999.0,  999.0,  999.0,  999.0,  999.0,  999.0,   -3.6,  999.0,  999.0,  999.0
1994/08/26 00:45,   -0.3,   -0.0,    0.4,    1.0,    1.3,    1.3,   -0.0,    0.2,    1.6,    4.2,    5.7,    5.7,    5.0,    3.2,    0.6,    1.1,    1.3,    1.7,    1.8,    1.8,    1.7,    2.6,    3.7,    2.9,    3.3,    1.1,    0.8,    0.8,    0.9,    0.6,    0.3,    0.4,    1.0,    2.1,    2.1,    2.8,    1.6,    0.9,    1.1,    1.2,    1.5,    1.1,    0.9,    0.8,    0.9,    0.8,    0.9,    0.5,   -0.0,   -0.5,   -0.8,   -1.0,   -1.2,    0.2,    1.3,    2.9,    3.3,    2.4,    1.7,   -0.2,   -2.4,   -4.1,   -3.9,   -2.2,   -3.3,   -3.8,   -5.5,   -5.4,   -5.6,   -6.8,   -5.8,   -6.1,   -5.0,   -7.2,   -9.7,   -1.5,   -4.5,   -2.1,   -0.6,   -0.3,   -0.2,   -2.1,   -3.6,   -4.7,   -1.9,   -2.2,   -1.3,  999.0,  999.0,   -0.6,   -2.8,   -0.4,   -0.0,   -0.1,   -0.1,   -1.0,  999.0,  999.0,   -0.9,   -2.4,   -2.7,  999.0,   -1.3,  999.0,  999.0,    0.5,   -1.5,   -3.3,  999.0,   -2.2,   -2.5,  999.0,  999.0,  999.0,  999.0,  999.0,  999.0,  999.0,  999.0,  999.0
1994/08/26 00:55,   -0.6,   -0.5,   -0.8,   -0.0,   -0.3,   -0.5,   -0.6,   -0.4,    1.0,    4.4,    6.0,    6.4,    5.6,    3.0,    0.7,    1.5,    1.3,    1.6,    1.5,    1.6,    1.2,    1.9,    3.3,    1.8,    2.5,    0.7,    0.6,    0.8,    0.8,    0.4,   -0.0,   -0.2,    0.4,    1.2,    1.7,    2.4,    1.2,    1.0,    1.3,    1.8,    2.1,    1.2,    1.8,    1.2,    0.7,    0.7,    0.9,    0.8,    0.5,    0.2,   -0.4,   -0.3,   -0.8,    0.1,    1.2,    3.0,    3.6,    2.9,    1.4,    0.5,   -3.1,   -4.5,   -5.1,   -3.0,   -3.6,   -4.4,   -5.7,   -6.1,   -6.4,   -7.0,   -6.3,   -6.9,   -6.0,   -8.0,   -9.6,   -1.1,   -6.0,   -3.0,   -0.6,   -0.5,    0.2,   -2.2,   -5.1,   -5.6,   -2.7,   -2.7,   -0.2,  999.0,    0.2,    1.3,   -2.3,   -0.5,  999.0,    0.9,  999.0,  999.0,  999.0,  999.0,   -1.9,   -1.7,   -1.0,  999.0,   -2.6,   -3.1,  999.0,  999.0,  999.0,  999.0,  999.0,   -1.5,   -2.3,   -3.8,  999.0,  999.0,  999.0,  999.0,  999.0,  999.0,  999.0,  999.0
1994/08/26 01:05,   -0.9,   -0.0,    0.2,    0.8,    1.1,    0.7,    0.6,    0.5,    2.0,    4.0,    5.3,    6.2,    5.0,    2.9,    0.8,    0.9,    2.1,    2.6,    1.5,    1.6,    0.8,    1.6,    2.2,    1.8,    3.1,    1.3,    0.9,    0.9,    1.4,    0.8,    0.6,    0.1,    0.6,    1.0,    1.3,    1.7,    1.3,    1.2,    1.0,    1.0,    2.2,    1.3,    1.1,    1.2,    0.8,    0.9,    1.1,    0.9,    0.5,    0.0,   -0.5,   -1.0,   -0.8,    0.2,    2.4,    4.2,    4.4,    2.6,    2.0,   -0.2,   -3.7,   -3.5,   -2.7,   -2.9,   -3.2,   -5.1,   -5.6,   -5.5,   -5.6,   -7.0,   -6.4,   -6.6,   -6.3,   -7.7,   -8.8,   -1.4,   -4.7,   -1.9,   -1.3,   -1.1,   -0.5,   -3.4,   -5.5,   -6.4,   -3.9,   -3.2,   -0.2,   -0.5,    0.2,   -0.6,   -0.9,   -0.7,  999.0,   -2.1,   -0.6,   -1.0,   -2.8,  999.0,  999.0,   -1.6,   -1.3,   -1.0,   -2.7,   -2.5,   -1.7,  999.0,    0.9,   -3.9,  999.0,   -1.5,   -3.8,  999.0,  999.0,  999.0,  999.0,  999.0,  999.0,  999.0,  999.0,  999.0
1994/08/26 01:15,   -0.3,    0.2,    0.0,    1.2,    1.1,    1.4,    0.8,    0.5,    2.3,    4.4,    5.9,    5.2,    4.4,    3.2,    0.3,    0.9,    1.5,    2.0,    0.8,    1.4,    0.9,    1.6,    0.9,    0.7,    2.4,    1.0,    0.5,    0.3,    0.6,    0.7,    0.2,   -0.2,    0.0,    0.6,    1.3,    0.8,    0.9,    1.1,    0.9,    1.3,    1.9,    1.3,    1.1,    1.1,    0.9,    0.9,    0.8,    0.4,   -0.1,   -0.4,   -0.7,   -1.0,   -0.5,    0.2,    3.0,    4.0,    4.4,    2.8,    2.0,   -0.4,   -3.6,   -4.4,   -3.4,   -3.7,   -4.1,   -4.1,   -5.6,   -5.8,   -5.4,   -6.1,   -5.8,   -7.0,   -6.3,   -4.7,   -8.1,   -3.0,   -3.7,   -2.4,   -1.1,   -0.6,   -0.7,   -1.6,   -4.4,   -5.6,   -4.3,   -3.3,   -0.5,    0.0,   -0.3,  999.0,   -0.2,    0.0,  999.0,   -0.4,   -0.2,   -1.3,  999.0,  999.0,   -2.8,   -3.4,  999.0,  999.0,   -3.2,   -2.5,  999.0,    1.1,   -0.9,   -4.5,   -2.4,   -2.5,  999.0,  999.0,  999.0,  999.0,  999.0,  999.0,  999.0,  999.0,   -5.3,  999.0
1994/08/26 01:25,   -0.2,   -0.0,    0.3,    1.0,    1.1,    1.0,    0.6,    0.6,    1.2,    4.5,    5.2,    4.9,    3.4,    1.7,    0.4,    1.4,    2.3,    2.1,    1.3,    1.9,    1.2,    1.9,    1.5,    1.8,    3.2,    2.6,    1.3,    1.3,    1.7,    1.3,    0.9,    0.1,    0.4,    1.0,    1.4,    1.2,    1.3,    1.4,    2.1,    2.6,    2.7,    1.7,    1.5,    0.6,    0.3,    0.4,    0.5,    0.2,    0.0,   -0.4,   -0.8,   -1.2,   -0.9,    0.4,    2.8,    4.3,    4.6,    3.8,    2.0,   -0.0,   -2.1,   -4.8,   -3.7,   -2.4,   -4.0,   -4.6,   -5.5,   -5.8,   -4.6,   -6.5,   -7.1,   -7.3,   -6.9,   -6.3,   -8.4,   -1.9,   -5.0,   -2.9,   -1.0,   -0.9,    0.1,   -2.4,   -5.5,   -5.5,   -4.8,   -2.9,   -1.2,   -1.0,    1.2,    0.5,   -0.5,   -0.1,    0.7,   -0.1,   -0.0,  999.0,   -1.7,  999.0,   -1.1,   -1.7,   -1.9,  999.0,   -3.4,   -2.2,   -2.1,   -0.8,   -2.1,   -3.9,  999.0,   -1.3,   -2.9,  999.0,  999.0,  999.0,  999.0,  999.0,  999.0,  999.0,   -4.3,  999.0
1994/08/26 01:35,    0.2,    0.4,    0.6,    0.8,    1.0,    0.9,    0.6,    0.4,    1.0,    3.6,    5.0,    4.6,    3.0,    1.0,    0.2,    0.5,    1.3,    0.9,    0.8,    0.9,    1.4,    1.4,    1.3,    1.5,    2.3,    2.8,    1.2,    1.2,    1.0,    1.0,    0.4,    0.3,    0.4,    0.9,    1.1,    0.9,    1.0,    1.0,    2.3,    2.4,    2.3,    1.3,    1.1,    1.0,    0.7,    0.6,    0.5,    0.1,   -0.2,   -0.5,   -0.7,   -1.2,   -1.1,   -0.0,    1.8,    3.0,    3.4,    2.5,    1.1,   -0.2,   -2.3,   -4.3,   -3.4,   -1.1,   -2.3,   -4.0,   -5.1,   -5.9,   -5.1,   -6.0,   -5.5,   -7.1,   -5.6,   -5.8,   -8.2,   -2.7,   -5.7,   -1.6,   -1.4,   -0.6,    0.4,   -2.2,   -5.0,   -5.3,   -4.4,   -1.7,   -1.1,   -0.2,   -2.1,   -0.1,   -1.0,    0.9,   -0.8,   -0.3,   -1.0,    0.8,    0.3,  999.0,  999.0,   -1.9,   -1.2,  999.0,  999.0,   -1.6,   -1.4,   -0.7,   -1.5,   -5.0,   -4.4,  999.0,   -4.8,   -8.1,  999.0,  999.0,  999.0,  999.0,   -4.9,  999.0,  999.0,  999.0
1994/08/26 01:45,    0.5,    0.1,    0.2,    0.7,    1.2,    1.0,    0.9,    1.0,    0.9,    3.5,    5.0,    5.1,    3.7,    2.3,    0.2,    0.6,    0.9,    1.2,    1.0,    1.3,    1.1,    1.3,    2.2,    1.4,    2.1,    1.9,    1.0,    1.0,    0.9,    0.3,   -0.3,   -0.0,    0.3,    0.9,    1.2,    1.2,    1.2,    1.3,    2.3,    2.4,    2.7,    1.6,    1.2,    0.8,    0.5,    0.7,    0.2,   -0.3,   -0.6,   -0.8,   -1.3,   -1.4,   -0.7,    0.6,    1.2,    3.5,    4.3,    3.2,    2.0,    0.0,   -2.1,   -4.2,  999.0,   -0.0,   -1.5,   -3.7,   -4.9,   -5.8,   -4.9,   -5.8,   -7.1,   -7.6,   -5.3,   -6.5,   -8.1,   -2.3,   -5.3,   -0.9,   -1.4,   -0.9,   -0.2,   -1.9,   -3.9,   -4.7,   -3.9,   -1.8,    0.0,    0.9,   -0.0,    0.2,   -0.9,  999.0,  999.0,   -0.7,   -0.1,   -0.2,   -0.2,  999.0,   -1.0,   -1.8,   -0.9,  999.0,   -2.9,   -1.4,   -1.5,   -0.8,   -2.2,  999.0,   -2.4,   -2.8,   -4.3,  999.0,  999.0,  999.0,  999.0,  999.0,   -8.5,  999.0,  999.0,  999.0
1994/08/26 01:55,    0.5,    0.6,    0.7,    1.1,    1.3,    1.3,    1.4,    1.8,    0.7,    3.0,    4.5,    5.6,    4.0,    2.4,    0.2,    0.5,    1.3,    1.2,    0.5,    0.7,    0.9,    1.5,    2.0,    1.7,    1.9,    1.9,    0.8,    1.0,    1.1,    0.9,    0.3,    0.3,    0.8,    1.6,    2.6,    2.5,    2.2,    1.8,    2.3,    2.3,  999.0,    1.7,    1.4,    0.9,   -0.0,    0.2,   -0.1,   -0.6,   -1.1,   -1.7,   -2.3,   -1.6,   -0.6,    0.2,    1.9,    3.8,    3.7,    3.0,    1.7,   -0.5,   -2.9,   -3.9,   -2.5,   -1.4,   -2.1,   -3.5,   -5.0,   -6.1,   -4.2,   -5.6,   -6.4,   -6.6,   -4.5,   -5.7,   -7.1,   -1.7,   -3.8,   -1.3,   -1.0,   -0.8,   -0.9,   -1.5,   -4.0,   -3.8,   -3.3,   -1.9,   -0.3,    0.1,  999.0,   -0.7,   -0.8,   -1.0,    0.2,    0.1,   -0.5,    1.2,  999.0,  999.0,    0.3,   -2.4,   -1.1,  999.0,  999.0,   -1.5,   -2.3,   -1.3,   -3.2,   -4.3,  999.0,   -2.2,   -2.4,  999.0,  999.0,  999.0,  999.0,  999.0,   -5.0,  999.0,  999.0,  999.0
1994/08/26 02:05,    1.0,    0.9,    1.0,    0.9,    1.4,    1.1,    1.6,    1.6,    0.9,    2.3,    4.8,    5.0,    3.6,    1.6,    0.1,    0.2,    1.1,    1.1,    0.7,    1.2,    0.9,    1.4,    2.1,    1.6,    1.5,    1.1,    0.8,    0.9,    1.0,    0.9,   -0.1,   -0.1,    0.5,    1.2,    1.9,    1.9,    2.4,    1.9,    2.3,    3.0,    3.3,    2.5,    1.9,    1.2,    0.9,    0.7,    0.7,    0.1,   -0.3,   -0.8,   -1.4,   -1.2,    0.1,    0.4,    1.7,    3.4,    3.2,    2.7,    1.0,   -0.6,   -3.3,   -3.6,   -2.4,   -2.3,   -3.3,   -3.1,   -6.1,   -5.6,   -5.3,   -6.2,   -6.9,   -7.3,   -6.3,   -6.0,   -7.4,   -4.6,   -5.6,   -1.6,   -0.6,   -0.7,   -0.9,   -2.2,   -4.5,   -5.1,   -3.4,   -1.1,   -0.8,   -0.4,    0.1,    0.1,  999.0,  999.0,  999.0,    0.0,   -4.1,    1.0,  999.0,  999.0,   -2.7,   -1.8,   -2.0,  999.0,   -1.6,   -1.4,   -1.7,   -1.4,  999.0,  999.0,   -4.3,   -2.2,   -1.2,  999.0,  999.0,  999.0,  999.0,  999.0,   -4.3,  999.0,  999.0,  999.0
1994/08/26 02:15,    1.5,    0.9,    0.9,    0.9,    1.3,    1.3,    1.3,    1.6,    1.0,    3.3,    5.0,    5.0,    3.4,    1.6,   -0.3,    0.7,    1.0,    1.0,    0.5,    1.3,    1.1,    1.2,    2.4,    1.8,    1.8,    1.7,    0.9,    0.8,    1.4,    1.0,    0.3,   -0.1,    0.8,    1.3,    2.2,    1.9,    2.2,    1.9,    2.2,    2.7,    2.8,    1.7,    1.4,    0.7,    0.4,    0.3,   -0.1,   -0.7,   -0.9,   -1.8,   -3.0,   -1.5,   -0.7,    0.1,    0.7,    3.2,    3.5,    2.3,    0.9,   -1.5,   -3.0,   -3.2,   -2.4,   -1.4,   -2.7,   -3.6,   -5.1,   -4.8,   -4.5,   -5.7,   -6.2,   -6.7,   -6.0,   -4.6,   -6.6,   -5.7,   -6.8,   -0.4,   -0.5,   -0.7,   -1.3,   -2.1,   -4.1,   -4.3,   -2.8,   -1.5,   -1.0,    0.5,    0.7,   -0.1,    0.4,   -1.0,   -0.5,    0.4,    0.6,   -0.6,  999.0,  999.0,   -1.8,   -1.1,   -1.2,   -1.7,  999.0,   -1.8,   -2.9,   -0.5,  999.0,  999.0,  999.0,   -2.9,   -3.0,   -8.7,  999.0,  999.0,  999.0,  999.0,  999.0,   -3.4,  999.0,   -3.3
1994/08/26 02:25,    1.2,    0.9,    0.7,    0.8,    1.1,    0.6,    0.9,    1.3,    1.4,    2.6,    4.4,    4.6,    3.2,    1.7,    0.1,    0.6,    0.9,    1.3,    0.4,    0.7,    0.5,    0.9,    1.8,    2.0,    1.6,    1.2,    0.6,    0.9,    1.2,    0.8,   -0.0,    0.5,    1.2,    1.7,    2.2,    2.3,    1.6,    1.7,    2.2,    2.9,    1.8,    2.1,    2.0,    0.8,    0.2,    0.4,   -0.2,   -0.7,   -0.8,   -1.2,   -2.3,   -1.1,   -0.7,    0.2,    1.3,    2.4,    3.0,    2.4,    1.0,   -0.7,   -3.1,   -3.0,  999.0,   -2.0,   -2.4,   -2.8,   -2.4,   -4.3,   -4.9,   -4.9,   -5.9,   -5.3,   -5.3,   -6.4,   -4.6,   -3.9,   -6.3,   -1.7,   -0.8,    0.1,   -1.9,   -1.9,   -4.0,   -3.6,   -2.7,   -2.0,   -1.0,   -0.4,   -0.5,    0.3,   -1.5,    1.0,   -0.1,    0.4,  999.0,   -0.2,  999.0,  999.0,   -2.0,   -1.9,   -3.0,  999.0,  999.0,   -1.5,   -1.3,   -0.6,   -1.7,  999.0,   -1.7,  999.0,   -3.2,  999.0,  999.0,  999.0,  999.0,  999.0,  999.0,  999.0,  999.0,  999.0
1994/08/26 02:35,    0.9,    0.8,    0.8,    0.9,    1.4,    1.2,    1.3,    1.6,    1.0,    2.3,    4.8,    4.3,    3.5,    1.6,    0.3,    0.5,    0.9,    0.8,    0.6,    0.4,    1.4,    2.3,    3.2,    2.6,    2.0,    1.6,    0.7,    0.9,    1.3,    0.4,   -0.1,   -0.0,    0.5,    1.4,    1.8,    1.3,    1.4,    1.6,    2.1,    3.0,    2.3,    2.0,    1.9,    1.1,    0.7,    0.8,    0.1,    0.0,   -0.1,   -1.1,   -2.3,   -1.7,   -0.7,    0.2,    1.5,    3.1,    3.1,    2.7,    1.4,   -0.8,   -2.6,   -3.0,   -4.0,   -0.8,   -2.5,   -2.7,   -1.3,   -4.1,   -4.7,   -5.5,   -5.9,   -6.7,   -6.4,   -5.3,   -5.7,   -6.1,   -7.2,   -0.7,   -0.2,   -0.6,   -1.4,   -2.8,   -4.7,   -4.6,   -2.4,   -2.0,   -0.4,    0.3,  999.0,   -1.6,   -1.2,    1.1,    0.1,    0.2,    1.1,  999.0,  999.0,  999.0,  999.0,   -0.8,  999.0,  999.0,  999.0,   -2.0,   -2.2,   -1.8,   -2.7,   -6.1,   -2.7,   -2.8,  999.0,  999.0,  999.0,  999.0,  999.0,   -6.7,  999.0,  999.0,  999.0,  999.0
1994/08/26 02:45,    1.0,    0.9,    1.3,    1.0,    1.5,    1.0,    1.5,    2.3,    1.8,    2.7,    5.1,    5.1,    4.0,    1.6,    0.7,   -0.1,    0.9,    0.4,    0.6,    0.2,    0.5,    1.5,    3.4,    2.7,    2.2,    1.5,    0.6,    0.8,    1.1,    0.7,    0.1,    0.2,    0.6,    0.7,    1.2,    1.5,    1.0,    1.3,    1.6,    2.1,    1.7,    1.9,    1.1,    0.6,    0.3,   -0.1,   -0.6,   -0.7,   -0.9,   -2.6,   -3.4,   -2.0,   -0.6,   -0.2,    1.3,    2.8,    3.1,    2.9,    2.0,   -0.5,   -2.8,   -3.6,   -1.5,   -2.8,   -3.5,   -3.1,   -4.5,   -4.3,   -5.6,   -6.1,   -6.6,   -6.4,   -5.5,   -4.8,   -6.9,   -6.9,   -4.5,   -0.3,   -0.9,   -1.4,   -0.3,   -2.6,   -3.7,   -3.0,   -2.3,   -1.9,   -0.7,   -0.0,   -0.2,   -0.1,   -1.7,    0.3,  999.0,   -0.3,  999.0,  999.0,   -4.5,  999.0,  999.0,   -1.8,   -0.9,  999.0,  999.0,   -5.2,    1.4,   -1.2,   -2.9,  999.0,  999.0,   -1.6,  999.0,  999.0,  999.0,  999.0,   -2.6,  999.0,  999.0,  999.0,   -4.3,   -3.6
1994/08/26 02:55,    1.5,    1.6,    0.8,    1.1,    1.8,    1.6,    1.7,    2.3,    1.9,    2.4,    4.7,    4.8,    3.7,    1.6,    0.8,    0.2,    1.1,    1.2,    0.2,    0.6,    0.7,    1.3,    2.3,    1.6,    1.3,    1.0,    0.4,    0.5,    0.9,    0.1,   -0.2,    0.1,    0.7,    1.0,    1.4,    1.2,    1.1,    1.0,    1.8,    3.2,    1.9,    2.4,    1.7,    0.8,    0.7,    0.6,    0.0,    0.0,   -0.8,   -2.9,   -3.2,   -2.3,   -0.6,    0.0,    1.0,    1.8,    1.9,    1.9,    0.8,   -1.1,   -4.0,   -2.9,   -2.4,   -2.0,   -2.6,   -3.6,   -3.9,   -5.2,   -5.9,   -6.2,   -6.4,   -6.2,   -4.8,   -5.4,   -7.1,   -7.8,   -3.0,   -1.3,   -0.3,   -0.9,   -1.1,   -2.4,   -3.7,   -2.8,   -1.5,   -1.1,   -0.4,   -0.3,  999.0,    0.4,    1.3,   -0.3,    0.3,   -0.3,    0.5,  999.0,  999.0,  999.0,   -1.0,   -1.8,   -2.1,   -4.2,  999.0,   -2.3,   -2.3,   -2.3,   -3.7,   -4.7,   -2.8,   -2.5,  999.0,  999.0,  999.0,  999.0,  999.0,  999.0,  999.0,  999.0,  999.0,  999.0
1994/08/26 03:05,    1.4,    1.6,    1.3,    1.4,    2.5,    1.9,    2.6,    3.3,    2.1,    3.5,    4.7,    4.9,    4.8,    1.9,    1.2,    0.6,    0.4,    0.6,    0.7,    0.3,    0.6,    1.4,    2.4,    1.5,    1.1,    0.7,    0.5,    0.7,    1.0,    0.2,   -0.3,    0.2,    0.6,    1.1,    2.1,    2.1,    1.3,    1.6,    2.2,    2.2,    1.5,    1.5,    1.1,    0.7,    0.4,    0.3,   -0.1,   -0.4,   -1.0,   -3.1,   -3.5,   -3.1,   -0.7,   -0.2,    1.3,    2.3,    2.9,    2.4,    1.0,   -0.5,   -3.1,   -2.8,   -1.9,   -2.0,   -1.7,   -2.4,   -3.8,   -5.3,   -4.9,   -5.4,   -6.3,   -6.1,   -5.2,   -4.5,   -6.8,   -6.4,   -3.5,    0.4,   -0.6,   -1.7,   -0.8,   -2.2,   -3.8,   -2.7,   -1.8,   -1.3,   -0.7,    0.0,   -0.2,    0.4,    0.9,    0.3,    0.0,    0.5,   -0.5,   -0.2,  999.0,  999.0,  999.0,   -1.3,  999.0,  999.0,  999.0,   -2.2,   -2.1,   -1.9,   -5.6,   -5.1,   -1.8,   -2.8,   -7.5,  999.0,  999.0,   -6.6,  999.0,  999.0,  999.0,  999.0,  999.0,   -2.9
1994/08/26 03:15,    1.1,    1.6,    1.5,    1.7,    2.4,    1.6,    1.9,    2.6,    1.2,    3.4,    4.7,    4.7,    3.9,    1.5,    0.7,   -0.0,    0.1,    0.3,    0.4,    0.3,    0.9,    1.5,    2.2,    2.0,    1.4,    0.8,    0.4,    0.6,    0.6,   -0.4,   -0.9,   -0.6,    0.1,    0.6,    1.5,    1.6,    1.2,    1.3,    1.5,    2.4,    1.5,    1.8,    1.8,    1.0,    1.3,    0.8,    0.7,    0.2,   -0.7,   -2.3,   -3.5,   -3.9,   -1.6,   -0.6,    0.9,    2.9,    2.8,    2.9,    1.7,   -0.2,   -2.4,   -3.3,   -1.9,   -1.5,   -1.9,   -1.4,   -3.7,   -4.5,   -4.9,   -6.2,   -6.3,   -7.0,   -5.2,   -5.6,   -6.2,   -5.9,   -5.6,   -0.9,   -0.2,   -1.5,   -1.3,   -2.3,   -3.9,   -3.0,   -1.9,   -1.3,   -1.1,   -0.5,    0.2,   -0.3,  999.0,   -0.2,    0.3,   -0.4,   -0.9,   -2.1,  999.0,  999.0,    1.0,   -2.4,  999.0,   -3.3,  999.0,   -2.1,   -2.3,   -2.3,   -4.8,   -5.2,   -0.4,   -4.2,   -5.9,  999.0,   -5.1,   -5.7,   -4.4,   -2.6,  999.0,  999.0,  999.0,  999.0
1994/08/26 03:25,    2.4,    2.5,    2.0,    2.3,    2.8,    2.5,    2.5,    3.1,    1.6,    3.1,    4.7,    4.3,    3.5,    1.6,    0.5,    0.1,    0.5,    0.3,   -0.1,    0.1,    0.6,    1.0,    1.7,    1.6,    1.1,    0.6,    0.6,    0.6,    0.8,   -0.0,   -0.4,   -0.2,    0.2,    0.7,    1.1,    1.2,    0.7,    0.9,    1.1,    1.6,    0.4,    1.1,    0.9,   -0.0,    0.1,    0.1,   -0.4,   -0.7,   -1.3,   -2.7,   -3.7,   -3.8,   -1.5,   -0.4,    1.2,    2.6,    2.4,    2.8,    1.4,   -0.4,   -2.3,   -2.7,   -2.1,   -1.5,   -1.5,   -1.9,   -3.4,   -3.3,   -5.4,   -5.0,   -6.6,   -6.9,   -5.4,   -4.1,   -3.9,   -5.1,   -5.6,   -0.7,   -0.5,    0.2,   -0.3,   -1.6,   -2.9,   -2.3,   -1.2,   -1.2,   -0.6,   -0.4,   -0.4,   -0.9,    1.1,   -0.4,   -0.6,   -0.8,   -1.4,  999.0,  999.0,   -2.6,   -3.1,   -3.0,   -3.2,   -3.5,   -5.9,   -1.7,   -2.8,   -2.6,   -4.2,   -4.9,   -1.6,   -3.1,   -5.7,  999.0,  999.0,  999.0,   -5.0,  999.0,  999.0,  999.0,  999.0,  999.0
1994/08/26 03:35,    3.3,    3.6,    2.6,    2.4,    3.5,    2.5,    2.0,    3.2,    1.7,    3.7,    4.5,    4.8,    4.1,    1.7,    0.7,    0.5,    0.2,    0.3,   -0.1,    0.0,    0.8,    1.0,    1.8,    1.4,    0.9,    0.7,    0.5,    0.4,    0.2,   -0.5,   -0.2,   -0.2,    0.1,    0.9,    0.8,    1.6,    0.5,    0.8,    0.9,    1.1,    1.2,    0.5,    1.1,    1.1,    0.4,    0.4,    0.3,   -0.3,   -0.6,   -0.8,   -2.9,   -2.7,   -1.6,    0.2,    1.4,    3.1,    2.8,    3.5,    1.6,    0.4,   -1.5,   -2.0,   -1.7,   -1.7,   -2.1,   -2.2,   -3.8,   -4.8,   -5.1,   -6.2,   -7.3,   -7.6,   -6.1,   -5.2,   -4.1,   -2.9,   -6.3,   -2.0,   -1.1,   -1.3,   -1.6,   -2.6,   -3.5,   -2.8,   -2.2,   -1.4,   -0.1,   -0.8,    0.4,    1.0,   -0.0,    0.2,    0.0,   -0.5,    0.3,   -1.1,  999.0,  999.0,   -1.8,   -2.5,  999.0,   -4.7,   -4.6,   -3.3,   -3.4,   -5.0,   -6.0,   -6.5,  999.0,  999.0,  999.0,   -6.9,  999.0,  999.0,  999.0,   -2.1,  999.0,   -4.5,  999.0,   -5.4
1994/08/26 03:45,    2.7,    2.7,    1.5,    1.5,    2.3,    2.2,    2.7,    3.3,    1.8,    3.4,    4.6,    4.5,    3.8,    1.8,    1.0,    0.6,    0.4,    0.2,   -0.2,    0.3,    0.7,    1.5,    2.6,    2.2,    1.0,    0.5,    0.3,    0.6,    0.2,   -0.1,   -0.1,    0.0,    0.5,    0.6,    1.2,    1.2,    0.4,    0.9,    1.1,    1.2,    1.2,    0.7,    1.4,    1.2,    0.6,    0.6,    0.3,   -0.7,   -1.0,   -1.7,   -3.5,   -3.5,   -1.6,   -0.5,    0.5,    1.0,    1.2,    2.2,    0.8,   -0.6,   -1.7,   -1.5,   -2.2,   -1.7,   -1.4,   -1.7,   -4.4,   -4.2,   -5.4,   -5.3,   -6.5,   -7.2,   -7.7,   -6.3,   -4.3,   -0.5,   -5.4,   -3.3,   -0.9,   -1.7,   -1.4,   -2.0,   -4.2,   -2.8,   -1.5,   -1.6,   -0.4,  999.0,    0.9,  999.0,    2.0,   -0.1,    0.9,   -0.1,    0.3,  999.0,  999.0,  999.0,   -2.0,   -2.0,   -4.6,   -5.0,  999.0,   -3.3,   -3.5,   -3.8,   -5.7,  999.0,   -2.4,   -5.0,  999.0,  999.0,  999.0,  999.0,   -5.1,  999.0,  999.0,  999.0,  999.0,   -2.8
1994/08/26 03:55,    4.2,    2.9,    2.4,    1.7,    2.3,    1.7,    2.6,    2.6,    1.4,    3.5,    4.6,    4.5,    3.8,    2.0,    1.4,    0.6,    0.3,    0.1,   -0.3,   -0.1,    0.6,    2.0,    2.9,    2.1,    2.1,    0.8,    0.9,    0.6,   -0.0,   -0.3,   -0.3,   -0.1,    0.1,    0.2,    0.7,    0.9,   -0.2,    0.8,    1.4,    1.4,    2.1,    1.3,    1.4,    1.8,    1.5,    0.9,    0.9,    0.3,   -0.4,   -0.7,   -2.1,   -2.6,   -1.2,   -0.3,    1.3,    1.0,    0.9,    2.5,    0.7,   -0.4,   -1.9,   -1.6,   -1.5,   -1.5,   -1.5,   -2.7,   -4.3,   -5.5,   -4.4,   -5.2,   -6.2,   -7.5,   -6.2,   -6.4,   -5.4,   -0.9,   -3.6,   -4.1,   -1.3,   -2.4,   -1.0,   -2.2,   -4.2,   -3.0,   -2.3,   -1.1,   -0.7,   -0.5,   -0.2,   -1.8,    0.5,    0.2,  999.0,   -2.2,    0.4,   -0.8,  999.0,  999.0,   -0.8,  999.0,  999.0,   -3.6,   -1.8,   -3.5,   -3.5,   -5.1,   -5.9,   -6.5,   -3.0,   -4.3,  999.0,  999.0,  999.0,  999.0,   -8.6,   -3.0,  999.0,  999.0,  999.0,  999.0
1994/08/26 04:05,    3.6,    3.1,    1.9,    1.9,    2.7,    1.7,    3.1,    3.3,    1.1,    3.1,    4.5,    4.7,    3.8,    1.6,    1.0,    0.8,   -0.0,    0.3,   -0.4,    0.0,    0.9,   -1.5,    2.3,    1.9,    1.2,    0.7,    0.5,    0.5,   -0.3,   -0.6,   -0.6,   -0.6,   -0.1,    0.3,    0.5,    1.1,    0.8,    1.3,    1.3,    2.3,    2.7,    2.1,    1.3,    1.5,    1.3,    1.0,    0.7,   -0.2,   -1.1,   -1.0,   -3.1,   -3.6,   -2.0,   -0.4,    0.2,    1.3,    1.0,    2.8,    0.8,    0.3,   -2.3,   -1.4,   -1.1,   -0.8,   -2.1,   -2.8,   -5.2,   -4.7,   -4.4,   -7.1,   -7.0,   -7.2,   -3.7,   -7.4,   -7.8,   -0.9,   -2.8,   -4.8,   -1.0,   -1.2,   -1.5,   -3.3,   -4.3,   -3.3,   -1.8,   -1.1,   -0.8,   -0.6,   -0.2,  999.0,   -1.2,    0.4,    0.3,    0.5,   -0.2,    0.2,  999.0,  999.0,  999.0,   -4.1,  999.0,  999.0,   -4.8,   -2.9,   -2.2,   -4.0,   -5.5,   -3.4,  999.0,  999.0,  999.0,  999.0,  999.0,  999.0,   -1.5,   -3.3,  999.0,  999.0,  999.0,  999.0
1994/08/26 04:15,    4.0,    3.1,    2.4,    2.8,    2.9,    3.1,    3.5,    3.6,    2.3,    2.7,    4.4,    3.8,    2.6,    1.1,    0.9,    1.1,   -0.1,   -0.1,   -0.5,   -0.4,    0.3,    0.8,    1.4,    1.3,    1.4,    0.9,    0.7,    0.9,    0.0,   -0.4,   -0.3,    0.1,    0.6,    0.9,    1.2,    1.3,    1.0,    1.7,    2.3,    3.2,    3.2,    2.3,    1.9,    2.3,    2.0,    1.2,    1.2,    0.2,   -1.1,   -1.5,   -2.0,   -3.2,   -2.5,   -0.6,    0.3,    1.5,    1.2,    2.6,    1.4,    0.1,   -2.3,   -1.5,   -2.7,   -0.7,   -1.3,   -1.8,   -4.3,   -5.6,   -4.8,   -6.1,   -6.9,   -8.0,   -7.5,   -7.7,   -8.3,   -1.7,   -4.1,   -4.3,   -2.4,   -0.8,   -1.6,   -4.2,   -5.0,   -4.0,   -1.9,   -1.5,   -0.7,   -0.2,    1.2,   -0.2,    1.7,    0.9,    0.2,    0.5,   -0.2,   -0.6,  999.0,   -0.8,  999.0,   -2.3,  999.0,  999.0,  999.0,   -3.1,   -2.5,   -4.6,   -6.3,  999.0,  999.0,  999.0,  999.0,  999.0,  999.0,  999.0,   -4.5,  999.0,  999.0,  999.0,  999.0,  999.0
1994/08/26 04:25,    4.1,    2.8,    2.7,    3.2,    3.4,    3.2,    3.3,  999.0,    2.4,    2.4,    3.5,    3.7,    2.6,    0.9,    1.1,    0.3,    0.3,   -0.1,   -0.4,   -0.1,    0.8,    1.0,    1.7,    1.6,    1.0,    0.7,    0.8,    0.4,    0.2,   -0.3,   -0.6,   -0.4,   -0.1,    0.3,    1.1,    1.2,    1.0,    1.5,    2.4,    2.7,    2.8,    2.1,    1.8,    2.5,    1.6,    1.3,    1.2,    0.3,   -0.6,   -0.9,   -1.6,   -3.3,   -2.9,   -0.7,   -0.3,    1.1,    0.6,    1.4,    1.2,   -0.0,   -1.6,   -1.4,   -0.2,   -0.5,   -0.9,   -1.1,   -3.9,   -4.8,   -4.6,   -4.6,   -6.2,   -7.4,   -6.9,   -7.3,   -8.0,   -3.5,   -2.2,   -3.9,   -2.8,   -0.8,   -2.8,   -3.8,   -4.8,   -3.5,   -1.3,   -1.2,   -0.1,   -1.0,   -1.0,   -0.1,  999.0,    0.3,   -0.4,    0.6,   -1.3,   -1.1,    1.3,  999.0,   -1.3,   -3.6,  999.0,  999.0,  999.0,   -2.8,   -3.8,   -4.1,   -7.2,  999.0,  999.0,  999.0,   -7.9,  999.0,  999.0,  999.0,  999.0,  999.0,  999.0,  999.0,   -3.1,    1.7
1994/08/26 04:35,    3.8,    2.0,    2.0,    3.2,    2.8,    2.6,    3.7,    3.4,    2.2,    3.1,    3.7,    3.4,    1.6,    1.0,    0.7,   -0.3,    0.1,    0.0,    0.1,   -0.1,    0.7,    1.3,    1.6,    2.0,    1.7,    1.4,    1.2,    1.4,    1.3,    0.3,   -0.3,   -0.3,    0.1,    0.4,    1.1,    1.3,    1.2,    2.1,    2.6,    3.0,    2.9,    2.5,    1.7,    2.1,    1.5,    0.9,    0.9,   -0.1,   -1.0,   -1.1,   -2.1,   -3.4,   -2.5,   -0.7,   -0.3,    0.6,    0.6,    1.4,    0.5,   -0.9,   -2.6,   -2.0,   -1.8,   -0.9,   -2.5,   -2.3,   -4.4,   -5.2,   -3.9,   -5.8,   -6.8,   -8.0,   -7.1,   -8.4,   -8.2,   -2.5,   -3.3,   -2.2,   -2.1,   -0.2,   -3.2,   -4.1,   -4.7,   -4.1,   -2.4,   -1.3,   -0.7,   -0.5,    0.7,    0.9,    0.2,    0.3,   -0.2,   -0.2,   -0.6,   -1.2,  999.0,  999.0,  999.0,  999.0,   -3.9,   -3.7,   -2.1,   -4.3,   -1.2,   -5.0,   -5.6,  999.0,  999.0,  999.0,   -9.3,  999.0,  999.0,  999.0,  999.0,  999.0,    0.1,   -2.9,   -2.9,  999.0
1994/08/26 04:45,    4.8,    1.7,    2.3,    3.1,    3.5,    2.0,  999.0,  999.0,    2.7,    2.5,    3.5,    3.7,    2.0,    1.0,    0.6,    0.1,   -0.4,   -0.4,   -0.7,   -0.2,    0.6,    0.7,    1.3,    1.6,    1.4,    1.5,    1.3,    1.5,    0.9,   -0.0,   -0.3,   -0.1,    0.4,    0.8,    1.2,    1.7,    1.5,    2.3,    3.0,    3.0,    3.1,    2.1,    1.3,    1.5,    1.2,    0.7,    0.5,   -0.7,   -1.6,   -2.4,   -2.4,   -4.0,   -3.4,   -0.8,    0.0,    0.9,    0.5,    0.8,    1.2,   -0.1,   -1.5,   -1.4,   -1.7,   -0.2,   -1.4,   -1.7,   -4.2,   -5.2,   -4.9,   -5.3,   -6.3,   -7.6,   -5.3,   -7.0,   -6.2,   -2.6,   -2.4,   -3.5,   -2.0,   -1.3,   -3.0,   -3.5,   -4.8,   -3.5,   -1.1,   -0.5,    0.3,   -1.5,   -0.3,   -0.6,   -1.6,    0.1,    0.0,    0.1,    0.7,  999.0,    1.3,  999.0,  999.0,   -3.6,   -3.8,   -3.9,   -2.7,   -1.6,   -4.2,   -5.8,   -6.7,  999.0,  999.0,  999.0,  999.0,  999.0,  999.0,  999.0,  999.0,  999.0,  999.0,  999.0,  999.0,   -2.4
1994/08/26 04:55,    3.8,    0.9,    1.6,    2.7,    2.4,    1.8,    2.6,    2.5,    2.1,    1.9,    3.4,    3.9,    4.3,    0.9,    0.5,    0.0,   -0.3,   -0.6,   -0.7,    0.4,    0.9,    0.8,    1.5,    1.6,    1.2,    1.0,    1.1,    1.0,    0.6,   -0.0,   -0.2,   -0.4,    0.3,    0.8,    0.9,    1.0,    1.2,    2.7,    3.6,    3.7,    3.9,    2.9,    2.3,    2.8,    2.0,    1.0,    0.9,    0.1,   -1.6,   -1.3,   -1.4,   -3.5,   -3.5,   -1.3,   -1.2,    0.1,   -0.1,    0.2,    0.0,    0.2,   -1.3,   -2.3,   -1.8,   -1.3,   -1.6,   -1.5,   -3.3,   -4.6,   -5.0,   -5.1,   -6.2,   -7.1,   -5.0,   -7.3,   -7.9,   -2.8,   -3.9,   -2.6,   -2.4,   -1.1,   -2.2,   -3.9,   -4.8,   -3.9,   -2.1,   -1.5,   -0.9,    0.1,   -0.1,   -0.8,   -1.3,   -0.9,   -0.6,    0.9,    0.2,   -1.5,  999.0,   -1.9,  999.0,  999.0,   -3.3,   -4.1,   -3.1,   -2.5,   -2.5,   -5.8,   -5.0,   -5.3,  999.0,   -2.5,  999.0,  999.0,  999.0,  999.0,  999.0,  999.0,  999.0,  999.0,  999.0,  999.0
1994/08/26 05:05,    3.6,    1.6,    2.2,    3.3,    2.6,    2.5,    2.7,    2.6,    2.1,    2.4,    3.0,    2.8,    1.9,    1.0,    0.7,   -0.2,   -0.2,   -0.4,   -0.2,    0.0,    0.8,    1.2,    1.6,    2.0,    2.1,    1.3,    0.9,    1.3,    1.0,    0.4,   -0.4,    0.4,    0.7,    0.9,    1.0,    1.6,    1.5,    2.1,    2.8,    3.2,    3.2,    1.9,    1.3,    2.1,    1.6,    0.9,    0.7,   -0.3,   -1.1,   -1.4,   -2.2,   -3.7,   -3.6,   -1.3,   -1.5,    0.8,   -0.2,    0.3,    0.9,    0.3,   -1.1,   -2.4,  999.0,   -0.9,   -1.4,  999.0,   -3.3,   -4.7,   -5.3,   -5.7,   -6.1,   -6.4,   -5.4,   -7.4,   -9.7,   -6.9,   -8.0,  999.0,   -3.6,   -2.0,   -3.3,   -3.7,   -5.0,   -3.9,   -3.8,   -1.6,    2.3,  999.0,   -1.6,    0.5,   -1.3,    0.4,    1.4,   -0.9,    0.1,  999.0,  999.0,  999.0,  999.0,   -1.9,   -2.6,   -4.5,   -4.1,  999.0,   -2.5,   -6.0,  999.0,  999.0,  999.0,  999.0,  999.0,  999.0,  999.0,  999.0,   -2.4,  999.0,  999.0,  999.0,  999.0,  999.0
1994/08/26 05:15,    2.7,    1.4,    2.9,    2.5,    2.9,    1.9,    2.5,    2.3,    1.5,    3.0,    3.6,    3.7,    3.3,    1.4,    0.7,    0.4,   -0.1,   -0.4,   -1.0,   -0.5,    1.0,    1.1,    1.3,    1.2,    1.9,    1.6,    1.5,    1.5,    0.8,    0.2,    0.1,    0.1,    0.4,    0.6,    1.3,    1.8,    1.4,    1.9,    2.4,    2.6,    2.9,    1.9,    1.3,    1.7,    1.2,    0.8,    0.3,   -0.7,   -1.1,   -1.9,   -2.5,   -4.0,   -3.8,   -1.7,   -1.5,   -1.2,    0.4,    0.3,    0.6,    1.0,   -0.8,   -1.1,   -0.8,   -1.1,   -1.1,   -1.1,   -2.6,   -3.4,   -5.0,   -2.3,   -5.3,   -6.6,   -5.0,   -7.3,   -7.0,   -1.3,   -5.9,   -3.2,   -3.4,   -1.5,   -2.7,   -4.1,   -5.7,   -3.1,   -1.6,  999.0,  999.0,    0.6,   -1.1,   -1.0,    1.1,   -0.8,  999.0,   -0.6,    0.2,  999.0,  999.0,  999.0,  999.0,  999.0,   -1.6,  999.0,   -3.9,   -0.8,   -2.6,   -4.4,   -5.9,   -3.3,  999.0,   -1.7,  999.0,  999.0,  999.0,   -3.9,  999.0,  999.0,  999.0,  999.0,  999.0,  999.0
1994/08/26 05:25,    2.9,    1.3,  999.0,    2.9,    2.5,    2.5,    2.8,    1.1,    1.2,    3.1,    3.3,    3.2,    3.1,    0.9,    0.6,    0.6,    0.4,   -0.5,   -0.7,   -0.5,    0.6,    0.8,    1.4,    1.6,    1.6,    1.4,    1.5,    1.3,    1.0,    0.2,    0.0,    0.6,    0.6,    0.7,    0.8,    1.6,    1.4,    1.4,    2.5,    2.8,    3.0,    1.4,    1.4,    1.9,    1.6,    0.9,    0.6,   -0.5,   -1.1,   -1.3,   -2.4,   -4.2,   -4.1,   -1.7,   -2.2,   -0.9,   -0.5,   -0.1,    0.2,   -0.3,   -1.7,   -1.6,   -2.0,   -1.7,   -1.6,   -1.5,   -3.4,   -4.7,   -4.9,   -3.7,   -5.3,   -6.1,   -5.2,   -7.4,   -5.2,    0.3,   -8.1,   -2.3,   -1.2,   -0.4,   -2.6,   -4.4,   -4.5,   -2.3,   -1.1,   -1.0,   -1.9,   -0.4,   -0.4,    0.1,   -1.0,   -1.5,   -1.8,  999.0,    0.5,  999.0,  999.0,  999.0,  999.0,  999.0,  999.0,   -4.6,  999.0,   -0.7,   -2.3,   -2.1,   -5.5,  999.0,  999.0,  999.0,  999.0,  999.0,  999.0,   -2.5,  999.0,  999.0,  999.0,  999.0,  999.0,  999.0
1994/08/26 05:35,    3.0,    1.7,    3.1,    3.2,    2.4,    2.5,    2.4,    1.9,    1.7,    2.6,    2.4,    1.8,    1.7,    0.7,    0.2,   -0.1,    0.2,   -0.3,    0.0,    0.1,    0.8,    0.9,    1.2,    1.1,    0.9,    1.2,    1.1,    1.1,    0.4,   -0.3,   -0.2,    0.5,    0.5,    0.7,    2.0,    2.4,    2.6,    2.3,    2.5,    3.1,    2.4,    2.1,    2.1,    2.9,    1.8,    1.3,    0.5,   -0.4,   -1.2,   -1.4,   -2.7,   -4.1,   -4.5,   -1.9,   -1.7,   -1.4,   -1.1,   -0.5,   -0.2,   -0.3,    0.0,   -1.5,   -5.6,   -1.3,   -2.1,   -1.6,   -2.8,   -4.1,   -5.1,   -3.4,   -5.2,   -6.3,   -5.9,   -7.0,   -4.3,   -1.4,   -8.5,   -2.8,   -0.2,   -3.3,   -4.3,   -4.6,   -4.8,   -2.0,   -0.9,   -0.1,    0.2,    0.0,    1.0,    0.3,   -0.9,   -1.9,  999.0,   -0.7,   -1.5,   -0.8,  999.0,  999.0,  999.0,  999.0,   -1.4,  999.0,   -1.4,   -2.4,  999.0,   -3.3,   -6.3,   -3.5,  999.0,  999.0,  999.0,  999.0,  999.0,  999.0,   -3.2,  999.0,  999.0,  999.0,   -2.9,  999.0
1994/08/26 05:45,    2.0,    1.9,    3.3,    3.6,    2.7,    2.7,    2.5,    2.4,    2.1,    2.5,    2.8,    2.8,    2.0,    0.2,   -0.2,   -0.3,   -0.2,   -0.1,   -0.0,    0.1,    0.9,    0.9,    1.2,    1.2,    1.3,    1.1,    0.9,    0.6,    0.4,   -0.3,    0.2,    0.3,    0.2,    0.7,    1.5,    1.8,    2.3,    2.4,    3.5,    3.7,    3.3,    2.4,    3.1,    3.1,    2.2,    1.2,    0.7,   -0.1,   -0.7,   -2.4,   -2.5,   -3.3,   -4.0,   -1.7,   -1.9,   -1.2,   -0.9,   -0.6,   -0.1,   -0.3,   -1.5,   -1.4,   -1.6,   -1.9,   -1.7,  999.0,   -2.8,   -3.3,   -4.3,   -3.4,   -4.8,   -6.9,   -5.6,   -6.4,   -7.5,   -4.0,   -8.4,   -2.5,   -0.7,   -2.8,   -3.4,   -4.2,   -4.0,   -1.9,   -1.0,  999.0,   -0.9,    1.3,    0.0,    0.5,   -1.6,   -1.0,    2.3,   -0.7,  999.0,   -0.9,  999.0,  999.0,  999.0,  999.0,  999.0,  999.0,  999.0,   -1.7,  999.0,   -3.0,   -6.8,   -3.4,  999.0,  999.0,  999.0,  999.0,  999.0,  999.0,  999.0,  999.0,  999.0,  999.0,  999.0,  999.0
1994/08/26 05:55,    2.2,    2.0,    3.1,    2.6,    2.7,    3.9,    2.3,    3.0,    2.2,    2.6,    3.5,    3.0,    1.0,    0.2,    0.2,   -0.3,    0.5,   -0.1,   -0.4,    0.3,    1.3,    1.2,    1.3,    1.5,    0.9,    0.9,    0.8,    0.9,    0.4,   -0.2,   -0.1,    0.2,    0.1,    0.5,    1.2,    1.4,    1.3,    1.6,    2.0,    2.9,    2.3,    0.7,    1.8,    1.8,    1.2,    0.5,    0.4,   -0.4,   -1.1,   -1.7,   -2.6,   -3.5,   -3.7,   -2.3,   -2.4,   -1.2,   -1.4,   -0.6,   -0.5,   -0.7,   -0.4,   -1.8,   -1.3,   -1.5,  999.0,  999.0,   -2.4,   -4.0,   -4.5,   -4.1,   -4.6,   -6.4,   -4.3,   -6.9,   -3.7,  999.0,   -9.5,   -2.1,   -1.3,   -2.9,   -4.4,   -4.9,   -4.2,   -2.2,    0.6,  999.0,    1.0,   -2.0,   -0.2,   -1.1,   -1.5,   -1.0,  999.0,   -0.6,  999.0,  999.0,  999.0,   -1.3,  999.0,  999.0,   -3.4,  999.0,  999.0,   -1.9,  999.0,   -2.7,   -5.6,   -2.8,    0.8,  999.0,  999.0,  999.0,  999.0,   -3.7,  999.0,  999.0,  999.0,  999.0,  999.0,  999.0
1994/08/26 06:05,    1.8,    2.9,    2.5,    0.8,    1.6,    2.0,    1.2,    1.5,    1.9,    2.0,    2.4,    1.4,    1.6,    0.3,    0.3,    0.2,    0.3,    0.3,    0.4,    0.1,    0.9,    1.0,    1.1,    1.7,    1.3,    1.3,    1.0,    0.4,    0.6,    0.3,    0.1,    0.1,   -0.7,    0.4,    0.6,    0.7,    1.0,    1.9,    1.9,    2.3,    1.8,    1.5,    1.8,    1.6,    0.8,    0.3,   -0.2,   -1.2,   -1.8,   -2.2,   -3.2,   -4.2,   -3.4,   -2.0,   -1.4,   -1.0,   -1.2,   -0.3,    0.2,   -0.5,   -1.8,   -0.5,   -1.1,   -2.1,   -1.1,  999.0,   -2.7,   -3.0,   -4.0,   -4.1,   -4.4,   -5.1,   -5.8,   -6.4,   -6.2,   -3.7,   -8.4,   -4.8,   -2.5,   -2.8,   -4.2,   -4.9,   -3.8,   -2.0,   -1.7,   -0.3,    0.3,    0.3,   -1.1,   -1.2,  999.0,   -1.0,  999.0,  999.0,  999.0,  999.0,  999.0,   -1.3,   -2.1,  999.0,   -3.4,  999.0,  999.0,    0.1,   -1.3,  999.0,  999.0,  999.0,  999.0,  999.0,   -3.4,  999.0,  999.0,  999.0,  999.0,  999.0,  999.0,  999.0,  999.0,  999.0
1994/08/26 06:15,    2.4,    3.2,    3.3,    1.6,    1.8,    2.5,    2.6,  999.0,    2.2,    2.5,    1.7,    1.1,    1.2,    0.9,    0.4,    0.5,    0.1,   -0.2,    0.1,   -0.0,    1.0,    0.9,    1.0,    1.0,    1.1,    1.0,    0.6,    0.7,    0.6,    0.2,   -0.4,   -0.4,   -0.6,    0.0,    0.6,    0.7,    1.1,    1.8,    2.0,    2.6,    2.2,    1.7,    2.0,    1.9,    0.9,    0.7,    0.3,   -0.7,   -1.8,   -2.3,   -3.8,   -4.4,   -4.4,   -1.8,   -2.9,   -2.1,   -1.3,   -0.5,   -0.5,   -1.2,   -2.2,   -0.2,   -0.9,  999.0,   -2.5,   -1.7,   -3.7,   -4.1,   -5.1,   -4.9,   -5.7,   -6.5,   -6.7,   -7.5,  999.0,   -2.2,   -6.8,    0.0,   -2.0,   -3.9,   -4.7,   -5.4,   -4.8,   -2.7,   -2.5,   -1.4,    0.3,    1.8,   -0.0,   -0.1,   -1.3,   -0.9,   -2.6,   -1.0,   -0.7,   -0.3,  999.0,    3.0,  999.0,  999.0,  999.0,  999.0,  999.0,  999.0,  999.0,  999.0,  999.0,  999.0,   -3.3,  999.0,  999.0,  999.0,  999.0,  999.0,  999.0,  999.0,  999.0,  999.0,  999.0,   -6.0
1994/08/26 06:25,    2.0,    2.2,    3.0,    1.6,    0.8,    1.6,    1.9,    2.1,    2.8,    3.4,    1.8,    1.1,    1.5,    0.6,    0.4,    0.2,   -0.2,   -0.0,   -0.2,    0.5,    1.4,    0.9,    1.1,    1.2,    1.5,    1.4,    1.0,    0.8,    0.7,    0.6,   -0.2,   -0.2,   -0.4,   -0.4,    0.2,    0.4,    0.9,    1.8,    2.4,    2.7,    3.0,    1.5,    1.7,    2.0,    1.3,    0.6,    0.3,   -0.8,   -0.9,   -2.0,   -3.6,   -3.2,   -3.2,   -1.4,   -1.7,   -1.5,   -1.0,   -0.6,   -0.3,   -2.4,   -1.8,   -1.1,   -1.2,   -1.4,   -1.7,   -2.0,   -1.8,   -4.2,   -8.0,   -4.2,   -5.1,   -7.3,   -7.3,   -7.8,  999.0,   -1.8,   -6.6,   -4.2,   -3.1,   -2.5,   -5.0,   -5.6,   -3.5,   -3.0,   -2.5,   -1.8,    1.2,    1.2,    1.5,   -1.8,   -1.7,   -2.0,  999.0,    1.1,   -0.9,  999.0,  999.0,  999.0,  999.0,  999.0,  999.0,  999.0,  999.0,  999.0,  999.0,  999.0,  999.0,   -1.4,  999.0,  999.0,  999.0,  999.0,  999.0,  999.0,  999.0,  999.0,   -2.0,  999.0,  999.0,  999.0
1994/08/26 06:35,    1.9,    2.2,    3.2,    2.8,    2.0,    2.5,    3.2,    3.0,    2.8,    2.6,    1.7,    1.1,    1.0,    0.2,    0.1,    0.1,    0.0,   -0.2,    0.0,    0.6,    1.1,    0.8,    1.5,    1.4,    1.8,    1.1,    0.8,    0.2,   -0.0,   -0.2,   -0.7,   -1.0,   -0.9,   -0.7,   -0.5,   -0.1,    1.0,    1.8,    3.1,    3.2,    2.9,    1.4,    1.8,    2.2,    1.9,    0.9,   -0.2,   -0.8,   -2.0,   -2.9,   -3.7,   -3.4,   -2.6,   -1.5,   -2.0,   -1.0,   -0.7,   -0.6,   -1.5,   -6.4,   -1.4,  999.0,   -1.1,   -0.7,   -0.8,   -1.2,   -2.0,   -2.5,   -3.7,   -3.3,   -4.2,   -6.1,   -6.1,   -6.2,  999.0,   -2.0,   -6.9,   -2.8,   -0.0,   -0.9,   -3.4,   -5.1,   -4.9,   -2.9,   -1.3,   -1.3,    0.2,    0.9,    0.2,    0.3,   -1.0,   -1.5,   -3.7,   -1.5,  999.0,  999.0,  999.0,  999.0,    1.8,   -2.6,   -4.6,  999.0,   -3.4,   -0.6,  999.0,  999.0,   -1.9,  999.0,  999.0,  999.0,   -4.3,  999.0,  999.0,  999.0,  999.0,   -0.9,  999.0,  999.0,  999.0,  999.0
1994/08/26 06:45,    1.7,    1.5,    3.1,    2.6,    2.0,    3.1,    2.2,    2.4,  999.0,    1.2,    1.0,    0.8,    0.5,   -0.3,   -0.3,    0.0,   -0.5,   -0.4,   -0.0,    0.6,    1.0,    0.3,    1.1,    1.3,    1.6,    1.7,    1.6,    1.0,    0.7,    0.2,   -0.5,   -0.8,   -1.0,   -0.9,   -0.7,   -0.1,    0.9,    1.5,    2.4,    2.3,    2.0,    1.3,    1.4,    1.5,    0.9,   -0.2,   -0.6,   -1.5,   -2.0,   -3.6,   -3.7,   -3.9,   -2.5,   -2.0,   -2.3,   -1.7,   -2.1,   -0.8,   -0.6,   -1.0,   -3.2,  999.0,  999.0,   -1.1,   -0.7,   -1.3,   -2.6,   -2.4,   -4.4,   -3.9,   -4.4,   -6.9,   -6.5,   -6.5,  999.0,   -4.5,   -5.9,   -4.5,   -0.8,   -1.5,   -5.1,   -5.1,   -4.5,   -2.1,   -1.7,   -0.9,   -1.2,    0.6,    0.8,  999.0,   -1.6,   -0.5,   -1.4,   -1.2,  999.0,  999.0,  999.0,  999.0,  999.0,  999.0,  999.0,  999.0,  999.0,  999.0,   -1.3,  999.0,   -4.8,  999.0,  999.0,  999.0,   -3.6,   -5.3,  999.0,  999.0,  999.0,  999.0,  999.0,  999.0,   -3.3,  999.0
1994/08/26 06:55,    1.1,    1.9,    3.7,    2.6,    2.1,    2.4,    2.2,    2.2,    1.9,    1.8,    1.8,    0.9,    1.6,    0.4,    0.5,    0.0,   -0.7,   -0.8,   -0.5,    0.5,    0.7,    0.2,    0.7,    1.3,    2.1,    2.2,    2.1,    0.9,    0.6,    0.0,   -0.5,   -0.6,   -0.9,   -0.6,   -0.0,   -0.1,    1.3,    1.8,    2.9,    2.8,    2.4,    1.3,    1.6,    1.9,    0.9,    0.8,   -0.7,   -1.4,   -2.0,   -3.5,   -4.3,   -4.3,   -3.1,   -2.7,   -3.3,   -3.1,   -2.3,   -1.0,   -1.6,   -2.5,   -2.2,  999.0,  999.0,   -0.3,   -1.1,   -2.2,  999.0,   -2.1,   -3.7,   -3.5,   -4.9,   -6.7,   -6.3,   -7.0,   -6.2,   -7.9,   -8.5,   -4.9,   -3.8,   -2.6,   -4.3,   -5.6,   -5.2,   -4.6,   -1.9,   -0.2,   -0.8,    0.7,    0.7,    0.4,   -5.4,   -1.6,  999.0,   -1.2,  999.0,  999.0,    0.2,  999.0,  999.0,  999.0,  999.0,  999.0,    1.3,  999.0,   -0.6,  999.0,  999.0,   -2.8,  999.0,  999.0,   -4.2,   -6.7,  999.0,  999.0,    0.5,  999.0,   -1.5,  999.0,  999.0,  999.0
1994/08/26 07:05,    1.6,    2.1,    3.3,    2.2,    1.6,    1.9,    1.4,    1.3,    1.5,    1.9,    1.1,    1.3,    1.2,    0.5,    0.2,    0.2,   -0.6,   -0.7,   -0.4,    0.9,    1.0,    0.6,    0.7,    0.6,    1.0,    1.5,    1.5,    1.5,    0.7,    0.4,   -0.1,   -0.3,   -0.8,   -0.6,   -0.6,    0.2,    1.2,    1.8,    2.8,    3.3,    2.7,    2.4,    1.9,    2.0,    1.0,    1.0,   -0.9,   -1.7,   -1.9,   -3.3,   -3.8,   -3.7,   -2.5,   -1.5,   -1.6,   -1.6,   -1.5,   -0.8,   -2.0,   -0.7,   -0.1,  999.0,  999.0,   -0.9,   -0.7,   -0.8,   -0.5,   -1.4,   -2.5,   -3.6,   -4.4,   -6.5,   -6.2,   -7.1,   -8.6,  999.0,   -7.4,   -4.6,   -1.7,   -1.4,   -5.1,   -5.4,   -5.8,   -2.2,   -0.2,   -0.6,    0.9,    0.1,    0.4,   -0.9,   -0.9,    0.3,   -1.8,   -0.7,   -1.3,   -1.8,  999.0,  999.0,  999.0,  999.0,  999.0,  999.0,  999.0,  999.0,  999.0,   -3.7,   -6.2,  999.0,  999.0,  999.0,   -5.8,  999.0,  999.0,  999.0,  999.0,  999.0,  999.0,  999.0,  999.0,  999.0
1994/08/26 07:15,    1.8,    1.8,    2.5,    2.7,    1.6,    1.5,    1.5,    1.8,    2.0,    1.9,    1.0,    1.0,    1.2,    0.4,    0.8,    0.3,   -0.7,   -0.9,   -0.7,    0.3,    0.8,    0.5,    0.9,    0.7,    1.2,    1.9,    2.1,    1.4,    1.0,    0.0,   -0.4,   -0.6,   -0.7,   -0.6,   -0.4,    0.2,    1.2,    2.7,    3.1,    3.3,    2.5,    1.5,    2.1,    2.0,    1.1,    0.3,   -0.8,   -1.7,   -2.5,   -2.9,   -3.6,   -4.1,   -3.5,   -2.2,   -3.2,   -2.7,   -1.7,   -1.2,   -1.0,   -1.7,   -1.6,   -0.5,  999.0,  999.0,   -0.5,   -1.8,   -1.1,   -2.3,   -2.5,   -3.7,   -4.9,   -7.3,   -6.7,   -7.4,   -2.4,   -6.7,   -7.4,   -1.7,   -1.0,   -2.3,   -3.9,   -5.0,   -5.4,   -2.3,   -1.3,    1.1,    0.0,    0.2,    1.1,   -0.3,   -1.0,   -1.9,   -0.5,   -0.2,   -1.2,   -1.2,  999.0,   -3.4,  999.0,  999.0,  999.0,  999.0,  999.0,   -1.7,  999.0,   -3.8,   -6.1,   -3.1,  999.0,  999.0,   -5.4,   -6.5,  999.0,  999.0,  999.0,  999.0,  999.0,  999.0,  999.0,  999.0
1994/08/26 07:25,    1.7,    1.5,    2.6,    2.7,    2.4,    1.8,    1.8,    1.4,    1.8,    1.2,    1.0,    1.1,    0.4,    0.5,   -0.3,   -0.1,   -0.3,   -0.3,    0.2,    0.9,    0.9,    0.2,    0.9,    0.6,    1.2,    2.3,    1.9,    1.3,    0.8,   -0.2,   -0.7,   -0.8,   -0.8,   -0.7,    0.3,    0.9,    1.4,    2.9,    3.4,    3.3,    2.7,    1.7,    2.2,    2.2,    1.1,   -0.0,   -0.8,   -1.2,   -2.3,   -3.3,   -3.8,   -3.8,   -3.8,   -1.7,   -3.1,   -2.8,   -1.6,   -0.9,   -0.6,   -0.9,   -1.0,   -0.8,  999.0,    1.0,   -0.7,  999.0,  999.0,   -1.2,   -1.7,   -3.2,   -5.6,   -7.0,   -6.0,   -5.7,  999.0,   -7.6,   -5.2,   -0.4,   -1.0,   -2.1,   -4.0,   -5.7,   -5.3,  999.0,   -1.7,   -2.2,   -0.2,   -0.5,  999.0,   -0.6,   -2.3,   -1.0,   -1.5,   -0.6,   -2.6,   -2.3,  999.0,  999.0,  999.0,  999.0,  999.0,  999.0,  999.0,   -0.6,   -2.4,  999.0,  999.0,  999.0,  999.0,  999.0,   -5.3,   -5.3,  999.0,  999.0,  999.0,  999.0,  999.0,  999.0,  999.0,  999.0
1994/08/26 07:35,    2.2,    2.8,    3.1,    2.2,    2.1,    1.7,    1.2,    2.0,    2.4,    1.6,    1.2,    1.2,    0.8,   -0.1,   -0.1,    0.5,   -0.5,   -0.8,    0.1,    0.8,    0.6,    0.5,    0.7,    0.7,    1.9,    2.5,    2.1,    1.1,    0.9,    0.3,    0.1,   -0.4,   -0.6,   -0.3,    0.2,   -0.0,    1.1,    1.9,    2.6,    2.8,    2.6,    1.7,    1.9,    1.6,    0.7,   -0.1,   -1.0,   -0.8,   -1.3,   -3.0,   -3.3,   -4.2,   -3.8,   -1.8,   -3.3,   -3.3,   -1.2,   -1.3,   -0.5,  999.0,  999.0,   -0.9,  999.0,   -1.8,   -0.6,  999.0,   -2.4,   -2.9,   -3.1,   -3.7,   -6.1,   -8.0,   -7.0,   -7.9,  999.0,   -8.1,   -4.4,   -1.0,   -1.1,  999.0,   -3.9,   -5.0,   -5.9,   -4.7,   -1.1,   -1.7,   -0.8,   -1.0,    1.1,   -3.0,   -1.6,  999.0,    1.1,   -0.1,   -1.1,   -1.6,  999.0,  999.0,  999.0,   -2.7,   -4.9,  999.0,   -2.5,   -1.0,  999.0,  999.0,  999.0,   -3.3,  999.0,   -4.0,   -4.7,   -5.4,  999.0,  999.0,  999.0,   -1.9,  999.0,  999.0,  999.0,  999.0
1994/08/26 07:45,    1.4,    2.1,    2.2,    1.3,    1.5,    1.2,    1.5,    2.0,    2.0,    1.7,    1.3,    0.8,    0.5,    0.2,   -0.2,    0.1,   -0.4,   -0.4,   -0.7,    0.2,    0.2,    0.3,    0.5,    0.4,    1.1,    1.6,    1.2,    0.6,    0.1,   -0.5,   -0.5,   -0.7,   -1.0,   -0.7,   -0.2,    0.1,    0.8,    2.1,    2.7,    2.8,    1.6,    1.1,    1.8,    1.4,    0.4,   -0.1,   -0.6,   -2.2,   -2.6,   -2.9,   -3.2,   -3.1,   -2.4,   -1.4,   -3.0,   -2.8,   -1.2,   -1.3,   -0.7,  999.0,   -1.1,  999.0,  999.0,   -1.0,   -0.9,   -1.1,  999.0,   -0.7,   -2.8,   -4.1,   -6.1,   -7.4,   -7.7,  999.0,  999.0,   -7.4,  999.0,  999.0,   -0.2,   -1.0,   -4.4,   -4.8,   -6.1,   -5.1,  999.0,   -3.5,    0.5,   -0.1,    0.5,   -0.6,   -1.6,  999.0,  999.0,   -0.8,   -1.4,   -1.2,  999.0,   -5.8,   -4.0,   -2.7,   -5.1,   -3.1,   -1.5,   -1.5,  999.0,  999.0,   -5.7,  999.0,  999.0,  999.0,   -5.4,   -7.0,  999.0,  999.0,  999.0,  999.0,  999.0,  999.0,  999.0,  999.0
1994/08/26 07:55,    1.6,    1.7,    2.0,    1.7,    0.8,    1.3,    1.4,    2.1,    2.8,    1.7,    1.5,    1.4,    1.3,    0.1,   -0.7,   -0.2,   -1.0,   -0.8,   -0.7,    0.5,    0.3,    0.5,    0.4,    1.2,    1.7,    1.9,    1.7,    1.0,    0.9,   -0.4,   -0.3,   -0.6,   -0.9,   -0.9,   -0.5,   -0.1,    1.2,    1.5,    3.0,    3.0,    2.3,    1.8,    2.4,    1.5,    0.6,   -0.2,   -0.2,   -1.4,   -1.9,   -2.8,   -3.2,   -3.3,   -2.3,   -1.6,   -4.1,   -3.1,   -2.3,   -2.0,   -0.4,   -1.2,  999.0,    0.3,  999.0,   -0.7,   -1.1,   -1.0,   -0.7,   -1.1,   -2.5,   -3.6,   -5.5,   -7.1,   -7.7,   -4.0,   -4.2,   -4.7,   -4.0,  999.0,   -0.8,   -1.0,   -3.0,   -5.7,   -6.6,   -3.9,    0.1,   -2.0,   -0.9,   -1.0,   -1.0,   -1.0,   -2.9,   -1.3,   -1.1,    1.4,   -1.0,   -1.9,   -4.4,   -4.8,  999.0,   -4.5,  999.0,  999.0,   -1.8,   -2.8,   -1.7,   -4.9,   -4.2,  999.0,  999.0,   -3.0,   -6.7,  999.0,  999.0,  999.0,  999.0,  999.0,   -7.3,  999.0,  999.0,  999.0
1994/08/26 08:05,    1.9,    1.8,    2.3,    1.7,    1.8,    2.1,    2.1,    2.0,    1.5,    1.0,    1.1,    0.8,    0.4,   -0.2,   -0.5,    0.0,   -1.3,   -1.3,   -0.3,    0.3,    0.8,    0.6,    0.7,    1.2,    2.2,    2.6,    2.1,    1.3,    0.8,    0.0,   -0.4,   -0.5,   -0.6,   -0.6,   -0.0,    0.1,    1.5,    2.9,    3.3,    3.3,    2.4,    2.4,    2.5,    1.9,    0.9,   -0.5,   -0.8,   -1.9,   -2.8,   -3.6,   -4.0,   -3.9,   -2.4,   -1.6,   -3.1,   -3.1,   -1.4,   -1.4,   -1.5,   -0.6,  999.0,   -0.7,  999.0,   -0.4,   -0.9,   -1.8,  999.0,   -1.9,   -2.4,   -3.6,   -5.7,   -7.4,   -7.1,  999.0,   -7.4,  999.0,  999.0,  999.0,   -2.6,   -0.7,   -2.4,   -5.4,   -6.4,   -4.1,   -0.8,   -0.1,  999.0,   -1.0,   -1.1,   -1.3,   -2.3,   -1.0,   -0.2,  999.0,   -2.6,   -2.0,  999.0,  999.0,   -2.4,   -4.5,  999.0,  999.0,  999.0,   -4.2,   -4.3,   -6.7,  999.0,  999.0,   -0.1,  999.0,   -3.3,  999.0,  999.0,  999.0,  999.0,  999.0,  999.0,  999.0,  999.0,  999.0
1994/08/26 08:15,    2.0,    1.7,    1.5,    0.8,    1.7,    1.0,    1.3,    2.0,    1.6,    1.5,    1.1,    0.9,    1.0,   -0.4,    0.1,   -0.2,   -0.7,   -0.9,   -0.1,    0.4,    0.5,    0.3,    0.5,    1.4,    2.0,    2.0,    2.0,    1.6,    0.5,   -0.4,   -0.1,   -0.1,   -0.3,   -0.4,   -0.2,    0.1,    1.4,    2.6,    2.9,    2.9,    2.5,    2.1,    2.6,    1.1,    0.2,   -0.3,   -0.7,   -1.5,   -2.0,   -3.1,   -4.1,   -3.0,   -1.9,   -1.4,   -3.1,   -2.8,   -2.2,   -2.6,   -2.0,   -0.4,   -0.3,   -1.5,   -1.6,   -1.5,   -1.5,   -1.5,  999.0,   -2.3,   -2.7,   -4.2,   -6.8,   -8.2,  999.0,   -7.9,   -7.5,   -2.4,  999.0,   -1.1,   -1.6,   -1.3,   -4.2,   -5.7,   -5.7,   -4.8,   -1.6,    0.6,    0.5,  999.0,    0.9,  999.0,  999.0,   -0.6,   -0.9,   -2.0,   -0.9,   -1.2,   -4.9,   -1.4,  999.0,  999.0,  999.0,  999.0,  999.0,  999.0,   -1.5,  999.0,   -4.5,  999.0,  999.0,  999.0,  999.0,  999.0,  999.0,  999.0,  999.0,  999.0,  999.0,  999.0,  999.0,  999.0
1994/08/26 08:25,    2.6,    2.2,    1.3,    1.0,    1.2,    1.2,    2.0,    2.3,    2.5,    1.0,    0.6,    0.7,    0.7,   -0.4,   -0.4,   -0.2,   -0.6,   -0.7,   -0.1,    0.2,    0.4,    0.3,    0.0,    0.7,    1.5,    1.5,    1.1,    0.9,    0.4,   -0.7,   -0.7,   -0.9,   -0.8,   -0.7,   -0.4,    0.1,    1.9,    3.4,    4.3,    3.9,    3.1,    2.8,    3.5,    2.3,    1.0,    0.2,   -0.2,   -0.9,   -1.2,   -2.0,   -2.8,   -2.9,   -2.5,   -1.6,   -2.5,   -3.0,   -3.2,   -2.8,   -1.5,   -2.7,   -2.5,   -0.1,   -2.0,   -0.9,   -1.4,   -1.7,   -2.1,   -3.2,   -4.0,   -6.1,   -8.8,   -9.3,   -2.5,   -8.7,   -7.6,   -0.7,   -3.5,    0.0,   -1.2,    1.0,   -3.9,   -5.7,   -5.5,   -3.6,   -1.7,   -0.9,   -0.2,  999.0,   -0.2,    0.8,    0.0,   -0.1,   -1.6,  999.0,   -1.7,   -3.4,   -3.9,  999.0,  999.0,  999.0,   -5.1,   -1.7,   -1.8,   -1.4,   -1.8,   -5.8,   -4.3,  999.0,   -2.4,  999.0,  999.0,  999.0,  999.0,  999.0,  999.0,  999.0,  999.0,  999.0,  999.0,  999.0
1994/08/26 08:35,    2.1,    2.3,    1.9,    2.1,    2.2,    2.2,    2.6,    3.0,    3.1,    1.8,    0.4,    0.7,    1.0,   -0.1,    0.1,   -0.4,   -1.4,   -1.3,   -0.6,    0.2,    0.3,    0.3,   -0.0,    0.6,    1.1,    1.9,    1.7,    1.6,    0.3,   -0.4,   -0.4,   -0.2,   -0.3,   -0.4,   -0.5,    0.3,    1.0,    1.7,    3.2,    3.4,    2.5,    3.0,    3.1,    1.4,    0.7,   -0.3,   -0.7,   -1.0,   -1.6,   -2.5,   -3.4,   -3.0,   -2.1,   -0.8,   -2.2,   -3.4,   -3.1,   -2.3,   -1.1,   -2.4,   -1.5,   -1.7,   -1.9,   -1.3,   -1.0,   -1.0,   -1.5,   -2.0,   -2.6,   -4.4,   -7.0,   -8.4,   -7.9,   -9.0,   -7.2,   -2.1,  999.0,   -1.5,   -1.5,   -0.7,   -4.6,   -6.9,   -6.1,   -4.1,   -1.3,   -2.0,    0.1,    0.8,    1.3,  999.0,  999.0,   -1.1,   -2.2,  999.0,   -2.1,   -3.0,  999.0,  999.0,  999.0,   -2.6,  999.0,   -2.4,   -3.2,   -1.9,   -4.4,   -7.8,   -5.9,  999.0,  999.0,  999.0,   -4.4,   -2.2,  999.0,  999.0,   -0.0,  999.0,   -2.1,  999.0,  999.0,  999.0
1994/08/26 08:45,    2.2,    1.5,    0.9,    1.2,    1.3,    1.5,    1.6,    1.7,    1.6,    0.9,    0.5,    0.5,    0.9,   -0.2,   -0.2,   -0.5,   -0.6,   -0.6,   -0.4,    0.3,   -0.0,   -0.3,   -0.2,    0.7,    1.3,    1.4,    1.0,    0.8,   -0.1,   -0.7,    0.1,    0.2,    0.1,    0.0,    0.2,    0.3,    1.5,    1.8,    2.5,    3.0,    2.0,    2.7,    3.7,    1.8,    0.2,   -0.5,   -0.4,   -0.8,   -1.0,   -1.6,   -2.3,   -1.7,   -1.4,   -1.5,   -3.2,   -3.7,   -3.3,   -2.6,   -2.4,   -1.9,   -1.6,   -1.0,   -0.9,   -1.2,   -1.2,   -1.3,   -2.2,   -1.2,   -2.9,   -5.0,   -7.2,   -8.6,   -6.7,   -9.4,   -3.9,   -2.2,  999.0,   -0.3,   -1.8,   -1.8,   -5.0,   -7.2,   -6.1,   -3.9,   -0.4,   -1.3,   -0.4,  999.0,   -0.4,  999.0,   -1.8,   -0.6,   -1.1,   -1.1,   -2.0,   -3.0,  999.0,  999.0,   -3.9,  999.0,   -3.0,  999.0,  999.0,  999.0,   -1.9,  999.0,   -5.5,   -4.0,  999.0,  999.0,   -4.7,   -1.6,  999.0,  999.0,  999.0,   -2.5,  999.0,  999.0,  999.0,  999.0
1994/08/26 08:55,    2.5,    2.2,    1.7,    2.4,    2.1,    1.1,    1.8,    2.0,    1.4,    0.7,    0.8,    0.6,    0.5,   -0.0,   -0.1,   -0.6,   -0.7,   -0.8,   -0.3,    0.4,    0.2,    0.1,   -0.4,    0.9,    1.4,    1.5,    1.5,    1.0,    0.2,   -0.4,    0.1,    0.3,   -0.2,   -0.1,    0.1,    0.3,    1.2,    1.8,    2.3,    2.1,    2.4,    2.8,    3.4,    1.5,   -0.3,   -0.8,   -1.0,   -1.4,   -1.7,   -2.2,   -2.4,   -1.6,   -1.3,   -0.8,   -1.8,   -2.7,   -2.7,   -2.6,   -2.3,   -1.9,   -2.5,   -1.1,   -1.3,   -1.3,   -0.8,    1.4,   -0.8,   -2.0,   -2.8,   -5.5,   -7.8,   -9.4,   -6.1,   -8.3,   -5.7,  999.0,   -2.1,   -1.7,   -0.2,   -1.4,   -4.4,   -6.3,   -6.6,   -4.8,   -0.2,   -1.3,   -0.6,   -1.3,  999.0,    0.4,   -3.2,   -1.1,   -1.7,   -0.9,   -3.4,   -3.8,  999.0,  999.0,   -1.2,   -1.6,  999.0,  999.0,  999.0,   -1.8,  999.0,  999.0,   -5.3,   -3.7,   -1.8,  999.0,   -6.2,   -4.8,   -5.2,  999.0,  999.0,  999.0,  999.0,  999.0,  999.0,  999.0
1994/08/26 09:05,    3.0,    3.2,    3.4,    3.2,    3.2,    2.3,    2.3,    2.0,    1.2,    0.6,    0.7,    0.8,    0.5,   -0.4,   -0.1,   -1.0,   -1.2,   -1.1,   -0.7,    0.2,    0.0,   -0.5,   -0.7,    0.1,    1.2,    1.5,    1.4,    1.0,   -0.0,    0.0,    0.3,    0.2,    0.3,    0.2,    0.7,    0.6,    2.7,    3.5,    4.0,    3.5,    3.0,    3.6,    3.7,    3.3,    0.7,   -0.6,   -0.7,   -1.3,   -2.0,   -1.8,   -2.7,   -2.7,   -1.8,   -1.2,   -3.3,   -3.6,   -3.1,   -2.0,   -1.2,   -1.7,   -2.7,   -1.8,   -1.4,   -2.0,   -0.9,   -0.9,  999.0,   -2.1,   -3.2,   -5.8,   -8.7,  -10.3,   -4.7,  999.0,   -2.4,   -0.0,   -1.8,   -1.0,   -1.3,   -0.1,   -4.9,   -6.8,   -6.7,   -3.3,  999.0,   -0.2,    0.4,  999.0,    0.1,  999.0,  999.0,   -2.3,  999.0,   -1.1,   -1.6,  999.0,   -1.4,   -0.4,  999.0,   -1.3,  999.0,  999.0,  999.0,  999.0,   -3.5,   -3.9,   -4.6,   -1.8,   -1.8,  999.0,  999.0,   -2.6,  999.0,  999.0,   -1.4,  999.0,  999.0,  999.0,  999.0,   -6.8
1994/08/26 09:15,    2.3,    3.0,    2.6,    2.4,    2.1,    2.0,    2.1,    1.6,    0.9,    0.4,    0.7,    1.3,    0.4,   -0.2,   -0.6,   -1.8,   -1.7,   -1.0,   -0.8,    0.7,    0.4,   -0.2,   -0.7,   -0.2,    0.6,    1.4,    1.4,    1.2,    0.2,    0.1,    0.1,    0.1,   -0.0,    0.1,    0.5,    0.8,    1.9,    3.1,    3.4,    2.5,    2.2,    2.4,    2.8,    2.2,    0.4,   -0.1,   -0.5,   -1.1,   -1.5,   -2.4,   -2.0,   -1.6,   -1.8,   -2.1,   -3.2,   -3.7,   -3.6,   -3.2,   -1.6,   -1.9,   -2.5,   -2.5,   -1.9,   -1.9,   -1.1,  999.0,    0.1,   -2.9,   -4.3,   -6.1,   -7.6,   -9.7,  999.0,   -8.3,  999.0,    0.6,  999.0,  999.0,   -2.4,  999.0,   -5.9,   -6.1,   -6.1,   -5.1,   -2.0,   -1.4,   -0.7,  999.0,    0.3,    0.1,  999.0,   -1.4,   -3.6,  999.0,   -0.9,   -2.0,   -2.9,   -1.8,   -1.7,   -3.4,  999.0,  999.0,  999.0,   -1.4,   -2.9,   -5.0,   -5.9,   -2.7,   -3.3,  999.0,  999.0,   -3.4,  999.0,  999.0,  999.0,   -3.8,  999.0,  999.0,  999.0,  999.0
1994/08/26 09:25,    1.7,    2.0,    3.2,    4.1,    2.5,    2.0,    2.0,    1.3,    0.7,    0.4,    1.1,    1.2,    0.1,    0.1,   -0.1,   -1.7,   -1.1,   -1.0,   -0.4,    0.9,    0.3,   -0.7,   -0.9,   -0.2,    0.8,    1.1,    1.5,    1.0,    0.4,    0.1,    0.0,   -0.0,   -0.1,   -0.1,    0.4,    0.7,    2.4,    3.7,    3.8,    3.2,    3.5,    3.2,    2.9,    1.5,    0.8,    0.1,   -0.5,   -0.7,   -1.8,   -2.5,   -2.6,   -2.2,   -1.8,   -1.9,   -3.8,   -3.8,   -3.1,   -3.3,   -2.3,   -3.1,   -3.2,   -2.1,   -2.2,   -1.7,   -2.7,  999.0,  999.0,  999.0,   -1.2,   -3.7,   -6.3,   -8.9,   -6.8,   -7.0,  999.0,  999.0,  999.0,   -0.8,   -0.6,   -1.4,   -4.9,   -6.5,   -6.1,   -4.6,   -0.4,   -1.5,   -1.2,    1.9,   -0.5,  999.0,   -1.4,   -1.4,   -1.8,   -2.0,   -1.8,   -2.1,  999.0,  999.0,  999.0,  999.0,  999.0,  999.0,  999.0,  999.0,   -4.7,  999.0,   -6.0,   -2.4,  999.0,  999.0,   -5.2,  999.0,  999.0,  999.0,  999.0,  999.0,  999.0,  999.0,  999.0,  999.0
1994/08/26 09:35,    1.7,    2.1,    3.6,    4.4,    3.0,    3.4,    2.7,    2.4,    1.4,    1.2,    0.3,    1.2,    0.5,   -0.5,   -0.7,   -1.0,   -1.0,   -0.9,    0.1,    0.1,    0.1,   -0.5,   -0.7,   -0.1,    0.7,    0.9,    0.9,    0.8,    0.2,   -0.2,    0.1,    0.2,   -0.2,   -0.1,    0.5,    0.9,    3.1,    3.8,    3.7,    2.7,    2.6,    3.1,    3.5,    1.5,    0.2,    0.3,   -0.2,   -0.7,   -1.4,   -2.0,   -2.2,   -2.0,   -1.7,   -1.1,   -3.2,   -3.5,   -3.1,   -2.6,   -2.4,   -2.6,   -3.6,   -2.7,   -2.6,   -2.0,   -0.8,   -1.1,   -1.6,  999.0,  999.0,   -3.0,   -5.0,   -7.7,   -9.0,   -9.4,  999.0,   -1.6,   -0.7,   -1.4,   -1.1,   -2.1,   -5.3,   -6.5,   -5.5,   -4.1,   -0.9,   -1.0,   -0.6,   -0.8,   -0.2,   -1.1,  999.0,   -1.0,   -2.5,   -1.0,   -2.0,   -2.0,   -1.9,   -0.9,   -1.8,  999.0,  999.0,  999.0,  999.0,  999.0,   -3.5,   -5.9,   -5.6,   -3.6,   -3.4,  999.0,  999.0,  999.0,  999.0,  999.0,  999.0,  999.0,  999.0,  999.0,  999.0,  999.0
1994/08/26 09:45,    1.5,    2.5,    4.5,    3.4,    3.1,    2.6,    2.0,    1.5,    1.8,    1.5,    0.5,    1.0,    0.8,   -0.4,   -0.4,   -1.1,   -1.4,   -1.5,   -0.8,    0.5,   -0.1,   -0.3,   -0.6,    0.1,    1.0,    1.7,    1.5,    1.1,    0.6,    0.1,    0.5,    0.4,   -0.2,    0.1,    0.8,    0.8,    3.0,    3.9,    3.9,    3.4,    3.1,    3.7,    3.7,    1.6,    0.9,    0.4,   -0.6,   -0.6,   -1.0,   -2.1,   -1.6,   -1.6,   -1.6,   -2.2,   -3.5,   -3.9,   -3.6,   -3.8,   -3.6,   -2.0,   -3.3,   -2.8,   -2.4,   -2.5,   -2.4,  999.0,   -1.5,  999.0,   -1.6,   -1.2,   -4.6,   -7.0,   -9.4,  -10.2,  999.0,   -4.0,  999.0,   -2.2,   -2.1,   -2.2,   -6.2,   -6.8,   -7.1,   -4.7,   -1.3,   -1.4,   -0.6,   -0.2,   -1.1,    0.9,   -2.0,   -1.3,  999.0,   -1.7,   -3.3,   -1.8,   -0.9,  999.0,   -1.0,  999.0,  999.0,  999.0,  999.0,  999.0,   -2.9,   -3.7,   -5.1,   -2.8,   -2.2,   -2.3,   -4.7,   -4.0,  999.0,  999.0,    4.4,   -6.1,  999.0,  999.0,  999.0,  999.0
1994/08/26 09:55,    1.7,    2.3,    2.7,    3.5,    3.9,    2.5,    2.1,    2.1,    1.0,    1.0,    0.5,    1.3,    1.2,    0.4,   -0.3,   -1.2,   -1.9,   -2.0,   -0.5,   -0.1,   -0.3,   -0.6,   -0.6,   -0.4,    0.6,    1.5,    1.4,    0.9,    0.6,    0.3,    0.6,    0.4,    0.2,    0.5,    1.4,    1.6,    3.7,    4.2,    4.1,    3.1,    3.0,    3.9,    3.4,    1.5,    0.3,   -0.2,   -0.3,   -1.6,   -1.5,   -2.1,   -2.1,   -2.0,   -1.9,   -1.8,   -3.4,   -4.3,   -3.8,   -2.8,   -3.3,   -2.3,   -2.9,   -2.6,  999.0,   -1.2,   -0.7,  999.0,  999.0,  999.0,  999.0,   -2.0,   -3.1,   -5.7,   -7.9,   -8.1,  999.0,  999.0,   -3.9,   -1.0,  999.0,   -3.0,   -5.8,   -6.5,   -6.2,   -5.6,   -2.4,   -2.3,   -0.7,   -0.6,   -1.7,   -1.1,  999.0,   -0.8,  999.0,   -2.8,   -0.4,    0.6,   -1.0,   -1.2,   -0.6,  999.0,  999.0,  999.0,  999.0,  999.0,   -2.0,   -3.9,   -6.2,   -3.5,   -2.7,  999.0,   -3.3,   -1.4,  999.0,   -2.6,  999.0,  999.0,  999.0,  999.0,  999.0,  999.0
1994/08/26 10:05,    2.9,    2.4,    3.7,    3.5,    3.2,    2.9,  999.0,  999.0,    0.7,    0.5,    0.3,    0.5,    0.7,   -0.1,   -0.2,   -1.5,   -1.5,   -1.5,   -0.6,    1.0,    1.4,    0.1,   -0.3,   -0.1,    0.4,    1.7,    1.9,    1.5,    1.1,    0.7,    0.8,    0.6,    0.1,   -0.4,    1.3,    1.6,    2.9,    3.6,    3.1,    2.4,    2.7,    3.5,    2.4,    0.4,   -0.6,   -0.4,   -0.8,   -1.0,   -0.7,   -1.1,   -1.4,   -1.4,   -0.8,   -2.1,   -3.1,   -3.9,   -3.5,   -2.8,   -3.2,   -1.2,   -3.4,   -2.4,   -3.2,   -1.4,  999.0,   -0.8,  999.0,  999.0,  999.0,   -2.8,   -4.6,   -6.0,   -9.5,  -10.5,   -9.8,  999.0,  999.0,   -7.1,   -0.5,   -4.5,   -6.8,   -6.9,   -7.2,   -6.6,   -1.6,  999.0,   -2.5,   -0.1,   -0.7,   -0.7,   -2.6,  999.0,   -3.6,   -2.4,   -3.3,  999.0,   -2.1,  999.0,   -0.9,   -1.6,  999.0,  999.0,  999.0,   -0.0,  999.0,  999.0,   -4.6,   -3.5,  999.0,  999.0,   -3.1,   -3.0,  999.0,   -1.0,  999.0,  999.0,  999.0,  999.0,  999.0,  999.0
1994/08/26 10:15,    2.5,    2.6,    2.9,    2.3,    2.7,    2.3,    1.4,  999.0,    0.6,    0.5,    1.0,    1.3,    0.1,   -0.1,    0.0,   -1.4,   -1.2,   -1.4,   -0.9,    0.3,    0.2,    0.2,   -0.5,   -0.3,    0.1,    1.5,    2.1,    1.9,    1.7,    0.6,    0.9,    0.9,    0.3,    0.4,    0.9,    1.1,    2.8,    3.6,    3.1,    2.1,    2.6,    3.6,    2.5,    0.7,    0.1,   -0.2,   -0.6,   -1.0,   -1.2,   -1.6,   -1.9,   -1.4,   -1.2,   -2.7,   -3.6,   -4.0,   -2.9,   -3.2,   -3.4,   -3.3,   -2.5,   -2.9,   -3.6,   -1.5,   -4.7,    0.8,  999.0,  999.0,   -0.4,   -1.2,   -3.3,   -5.6,   -7.6,  999.0,  999.0,   -2.0,   -3.5,   -2.4,  999.0,   -2.0,   -5.8,   -5.6,   -6.7,   -6.4,   -6.1,   -1.6,  999.0,  999.0,  999.0,   -1.7,   -2.3,   -3.4,   -2.8,   -5.2,   -3.9,  999.0,  999.0,  999.0,  999.0,  999.0,  999.0,  999.0,   -3.3,  999.0,  999.0,   -6.0,   -6.7,   -3.4,   -4.1,  999.0,   -4.6,  999.0,  999.0,  999.0,  999.0,  999.0,  999.0,  999.0,  999.0,  999.0
1994/08/26 10:25,    0.8,    2.0,    1.7,    2.2,    1.8,    2.2,    2.7,    1.4,    1.0,    0.1,    0.3,    0.7,    0.4,   -0.1,   -0.4,   -0.7,   -1.6,   -0.6,   -1.0,   -0.0,    0.6,   -0.2,   -0.7,   -0.8,    0.2,    1.2,    2.3,    1.6,    1.1,    0.5,    0.2,    0.2,   -0.1,   -0.2,    0.6,    1.3,    2.1,    3.0,    2.6,    1.9,    2.7,    3.4,    1.7,    0.4,    0.3,    0.1,   -0.1,   -0.4,   -0.5,   -1.1,   -0.9,   -0.8,   -1.6,   -2.3,   -3.0,   -3.4,   -2.7,   -2.5,   -2.3,   -1.6,   -3.3,   -2.2,   -2.6,  999.0,    1.3,   -0.4,  999.0,  999.0,   -2.5,   -3.0,   -5.4,   -7.8,   -8.6,  999.0,  999.0,   -4.1,   -5.9,   -4.1,   -1.4,   -1.0,   -6.6,   -7.5,   -7.1,   -6.4,   -1.7,   -1.9,   -1.3,   -0.9,   -0.9,   -1.0,  999.0,   -2.7,   -1.9,   -2.4,   -2.0,   -2.6,  999.0,  999.0,  999.0,   -3.3,  999.0,  999.0,   -1.3,    2.7,  999.0,   -3.5,   -5.6,   -4.3,   -3.4,   -6.6,   -4.8,   -4.4,  999.0,  999.0,  999.0,  999.0,   -5.9,   -4.7,   -6.3,  999.0
1994/08/26 10:35,    1.5,    2.6,    3.1,    3.9,    3.1,    2.8,  999.0,    2.5,    0.8,    0.3,    0.9,    1.3,    0.6,   -0.3,   -0.4,   -2.1,   -1.8,   -1.0,   -0.6,    0.4,    0.8,    0.5,   -0.2,   -0.8,    0.1,    1.0,    2.0,    1.9,    1.4,    0.9,    0.4,    0.4,    0.3,   -0.1,    0.8,    1.1,    1.6,    2.2,    2.4,    1.7,    2.1,    2.4,    0.7,   -0.2,   -0.2,   -0.0,   -0.4,   -1.0,   -1.0,   -1.0,   -1.3,   -1.2,   -2.2,   -3.5,   -3.8,   -4.0,   -3.1,   -3.0,   -3.2,   -2.8,   -2.7,   -3.3,   -2.8,   -0.2,    0.4,   -1.3,  999.0,   -1.1,   -1.8,   -4.4,   -6.4,   -8.6,   -5.3,   -9.6,  -10.2,    2.5,   -3.5,   -4.5,   -1.7,  999.0,   -6.2,   -5.4,   -7.0,   -6.4,   -2.2,   -2.1,   -1.4,  999.0,  999.0,    0.6,   -1.5,   -2.3,   -2.6,   -4.1,  999.0,   -0.4,   -3.7,   -1.3,   -0.6,  999.0,  999.0,  999.0,   -2.7,   -2.4,  999.0,  999.0,   -6.9,   -4.5,   -3.3,   -7.2,   -4.4,   -4.8,  999.0,  999.0,  999.0,  999.0,   -4.9,   -6.2,  999.0,  999.0
1994/08/26 10:45,    4.9,    3.4,    3.4,    4.3,    4.4,    3.8,  999.0,    2.5,    1.2,    0.9,    1.1,    1.6,    0.5,   -0.0,   -0.0,  999.0,   -1.8,   -1.1,   -0.4,    0.3,    0.7,    0.0,   -0.3,   -0.4,    0.7,    1.4,    2.5,    2.5,    1.9,    1.2,    0.7,    0.6,    0.4,    0.3,    0.6,    1.0,    2.0,    2.9,    3.0,    1.7,    1.5,    2.3,    1.1,   -0.0,   -0.3,   -0.3,   -0.6,   -1.0,   -1.6,   -1.7,   -1.6,   -1.6,   -2.9,   -3.6,   -4.6,   -4.6,   -3.1,   -2.4,   -2.5,   -1.2,   -2.0,   -2.4,   -2.0,   -1.0,   -0.4,    0.3,  999.0,   -1.5,   -1.5,   -4.4,   -6.1,   -8.5,   -6.2,  999.0,   -8.6,  999.0,   -6.6,   -1.0,   -2.1,   -0.9,   -5.1,   -5.5,   -6.8,   -6.4,   -3.7,   -1.0,   -1.3,   -1.0,   -0.3,   -0.7,   -1.1,   -1.9,   -1.9,   -3.5,   -2.9,   -1.5,  999.0,  999.0,  999.0,   -1.8,  999.0,  999.0,   -1.3,   -1.5,   -2.4,  999.0,   -6.9,   -4.8,   -3.7,  999.0,   -7.8,   -4.2,  999.0,  999.0,  999.0,   -7.3,   -6.4,   -8.2,  999.0,  999.0
1994/08/26 10:55,    3.1,    1.8,    2.0,    1.9,    2.4,    3.7,    2.9,    2.5,    1.0,    0.6,    0.9,    1.0,   -0.2,   -0.1,    0.0,   -0.9,   -0.8,   -0.3,    0.1,    0.5,    1.0,    0.4,   -0.0,   -0.3,    0.5,    1.6,    2.4,    2.2,    2.1,    0.9,    0.7,    0.5,    0.3,   -0.0,    0.6,    1.3,    1.5,    1.9,    2.3,    1.6,    1.7,    2.2,    1.4,    0.1,   -0.0,   -0.4,   -0.8,   -1.0,   -1.4,   -1.2,   -1.0,   -1.0,   -1.5,   -2.9,   -4.2,   -4.3,   -3.9,   -3.0,   -2.5,   -2.3,   -3.3,   -1.2,  999.0,  999.0,  999.0,  999.0,  999.0,  999.0,  999.0,   -4.7,   -6.2,   -9.9,  999.0,  999.0,  999.0,  999.0,  999.0,  999.0,  999.0,  999.0,  999.0,  999.0,  999.0,  999.0,  999.0,  999.0,  999.0,  999.0,  999.0,  999.0,  999.0,  999.0,  999.0,   -2.0,  999.0,  999.0,  999.0,  999.0,  999.0,  999.0,  999.0,  999.0,  999.0,  999.0,  999.0,  999.0,   -6.4,  999.0,   -3.3,  999.0,   -5.0,   -3.7,  999.0,  999.0,  999.0,  999.0,  999.0,  999.0,  999.0,  999.0
1994/08/26 11:05,    2.2,    1.6,    1.9,    2.9,    3.9,    4.2,  999.0,    2.5,    1.3,    1.0,    1.5,    1.1,    0.1,    0.4,   -0.1,   -1.4,   -0.9,   -0.4,    0.2,    0.9,    1.5,    0.7,    0.1,   -0.3,    0.5,    1.0,    2.5,    2.3,    1.9,    1.1,    0.9,    0.8,    0.7,    0.4,    1.1,    2.3,    2.3,    2.1,    2.8,    2.4,    1.6,    2.4,    1.8,    0.3,   -0.1,   -1.3,   -1.4,   -1.5,   -1.8,   -2.1,   -2.0,   -1.1,   -2.3,   -2.6,   -4.1,   -4.1,   -3.6,   -3.3,   -3.2,   -2.9,   -3.0,   -2.3,    0.7,   -1.1,  999.0,   -0.9,  999.0,   -1.3,   -2.6,   -4.7,   -6.5,   -8.5,   -9.2,   -8.5,   -5.1,   -7.4,   -1.7,   -4.2,  999.0,   -3.4,   -5.5,   -5.9,   -7.5,   -7.1,   -5.5,   -3.7,   -3.6,   -2.1,   -3.2,   -1.5,  999.0,  999.0,  999.0,   -3.4,   -2.4,  999.0,  999.0,  999.0,  999.0,  999.0,   -3.0,  999.0,  999.0,   -2.6,   -2.4,   -7.8,   -7.6,   -8.6,  999.0,  999.0,  999.0,  999.0,  999.0,  999.0,  999.0,   -6.6,   -6.1,  999.0,  999.0,  999.0
1994/08/26 11:15,    4.7,    3.6,    4.1,    4.9,    4.9,    3.8,    3.7,    2.9,    1.2,    0.2,    0.6,    1.5,    0.6,    0.5,   -0.0,   -1.1,   -0.9,   -0.5,    0.0,    0.4,    0.5,   -0.1,   -0.4,   -0.6,    0.2,    0.7,    2.2,    2.1,    1.8,    1.2,    1.2,    1.1,    1.0,    0.7,    1.1,    1.8,    1.8,    2.3,    2.9,    2.5,    1.5,    2.4,    1.9,    0.8,    0.7,   -0.7,   -1.0,   -0.9,   -0.9,   -1.2,    0.0,   -1.1,   -2.1,   -3.1,   -3.0,   -4.6,   -5.2,   -4.2,   -3.8,  999.0,   -2.3,  999.0,  999.0,  999.0,  999.0,  999.0,  999.0,   -1.9,   -4.1,   -6.7,   -8.7,   -9.6,  999.0,  999.0,  999.0,   -1.0,    0.9,   -2.0,   -3.0,  999.0,   -5.8,   -5.3,   -7.3,   -6.4,   -1.9,   -3.2,   -1.6,   -1.1,  999.0,   -0.5,  999.0,   -2.6,  999.0,  999.0,  999.0,  999.0,  999.0,  999.0,  999.0,  999.0,   -1.2,  999.0,  999.0,   -6.2,   -2.9,  999.0,   -7.5,  999.0,  999.0,  999.0,  999.0,  999.0,  999.0,  999.0,  999.0,  999.0,  999.0,  999.0,  999.0,  999.0
1994/08/26 11:25,    2.2,    2.6,    1.1,    4.6,    4.6,    4.0,    3.3,    2.4,    0.5,    0.2,    0.9,    1.3,    0.7,    0.2,   -0.3,   -1.6,   -0.8,   -0.7,   -0.9,    0.2,    0.6,   -0.0,   -0.6,   -0.3,    0.8,    1.6,    3.4,    2.3,    2.2,    0.9,    1.0,    0.9,    0.8,    0.4,    0.8,    1.5,    1.6,    1.6,    3.1,    3.0,    1.7,    2.4,    1.8,    0.1,   -0.3,   -0.6,   -0.6,   -1.2,   -1.6,   -1.5,   -1.1,   -1.1,   -1.3,   -1.7,   -2.3,   -2.7,   -3.9,   -5.1,   -1.1,   -3.5,   -2.0,  999.0,  999.0,  999.0,  999.0,  999.0,  999.0,   -2.2,   -4.0,   -5.1,   -7.9,  -10.0,   -9.6,   -8.1,  999.0,   -0.9,  999.0,  999.0,  999.0,  999.0,   -6.0,   -7.0,   -8.1,   -5.6,   -1.8,  999.0,   -0.6,  999.0,    1.0,   -0.6,  999.0,   -1.1,  999.0,  999.0,  999.0,  999.0,  999.0,  999.0,  999.0,  999.0,  999.0,  999.0,  999.0,   -1.5,   -2.1,  999.0,   -8.1,  999.0,  999.0,  999.0,  999.0,  999.0,  999.0,  999.0,  999.0,  999.0,  999.0,  999.0,  999.0,  999.0
1994/08/26 11:35,    4.1,    4.0,    4.3,    4.3,    4.4,    3.3,    3.1,    1.2,    0.8,    0.7,    1.2,    1.7,    0.6,    0.6,   -0.4,   -0.8,   -0.6,   -0.5,    0.4,    0.8,    1.5,    0.3,   -0.0,   -0.5,    0.2,    1.1,    2.2,    1.7,    1.8,    0.7,    0.7,    0.8,    0.6,    0.3,    0.9,    1.6,    2.1,    3.2,    3.4,    2.4,    2.8,    2.9,    1.3,    0.2,    0.2,    0.1,   -1.4,   -1.7,   -2.4,   -2.4,   -1.9,   -1.4,   -1.2,   -1.9,   -3.7,   -4.4,   -4.7,   -3.6,   -4.0,  999.0,  999.0,   -2.2,   -5.3,    1.0,  999.0,    0.9,  999.0,   -3.0,   -4.3,   -7.3,   -8.6,  999.0,  999.0,  999.0,  999.0,    1.3,  999.0,   -1.9,   -2.5,   -4.5,   -3.2,   -6.5,   -6.4,   -5.9,  999.0,  999.0,  999.0,  999.0,  999.0,  999.0,   -1.7,   -2.4,  999.0,   -3.7,  999.0,  999.0,  999.0,   -1.6,  999.0,  999.0,  999.0,  999.0,  999.0,  999.0,  999.0,  999.0,   -6.2,   -5.6,  999.0,  999.0,  999.0,  999.0,  999.0,  999.0,  999.0,  999.0,  -13.2,  999.0,  999.0,  999.0
1994/08/26 11:45,    1.2,    1.6,    3.5,    4.4,    5.0,    5.9,    3.9,    1.6,    1.5,    1.5,    2.3,    1.8,    0.7,    0.1,   -0.1,   -0.5,   -0.5,   -0.5,    0.7,    1.0,    1.1,    0.3,   -0.1,   -0.0,    0.5,    2.1,    3.2,    2.2,    2.9,    1.0,    0.8,    0.8,    1.0,    0.6,    0.6,    1.0,    1.1,    1.8,    3.1,    2.4,    1.9,    1.7,    1.1,    0.3,   -0.3,   -0.5,   -0.9,   -1.4,   -2.4,   -2.4,   -1.8,   -2.7,   -2.7,   -3.5,   -4.8,   -4.1,   -4.1,   -3.9,  999.0,   -3.6,  999.0,   -2.9,  999.0,  999.0,   -2.9,  999.0,  999.0,   -3.7,   -6.1,   -8.1,   -9.8,  999.0,  999.0,  999.0,  999.0,   -3.1,  999.0,  999.0,   -0.4,   -0.9,   -5.5,   -6.3,   -6.7,   -5.2,   -3.9,  999.0,  999.0,  999.0,  999.0,   -1.1,   -0.5,   -1.3,   -4.2,   -3.1,   -2.9,   -1.4,  999.0,  999.0,  999.0,  999.0,  999.0,  999.0,  999.0,  999.0,  999.0,   -5.5,   -7.0,  999.0,  999.0,  999.0,  999.0,  999.0,  999.0,  999.0,  999.0,  999.0,  999.0,  999.0,  999.0,  999.0
1994/08/26 11:55,    5.3,    5.3,    6.9,    7.8,    7.6,    6.7,    3.4,    0.9,    0.7,    1.3,    2.1,    1.3,    0.8,    0.6,    0.2,   -0.7,   -0.5,   -0.4,    0.4,    0.6,    0.9,    0.6,   -0.8,   -0.7,    0.1,    1.3,    2.4,    2.1,    2.7,    1.1,    1.0,    1.3,    1.8,    1.0,    1.2,    1.1,    1.2,    2.2,    2.9,    2.8,    1.7,    1.4,    1.6,   -0.2,   -0.5,   -1.0,   -1.3,   -1.9,   -2.2,   -2.1,   -1.8,   -1.9,   -2.9,   -3.4,   -3.6,   -3.7,   -3.0,   -2.6,  999.0,  999.0,  999.0,  999.0,    0.0,  999.0,   -1.0,  999.0,   -0.9,   -3.0,   -4.5,   -0.3,  999.0,  999.0,  999.0,    1.9,  999.0,    1.3,  999.0,   -0.2,  999.0,  999.0,   -6.3,   -7.5,   -5.1,   -4.4,   -3.7,    1.4,  999.0,  999.0,  999.0,  999.0,  999.0,   -0.4,   -4.9,   -4.3,   -1.1,  999.0,  999.0,   -0.7,    0.7,  999.0,   -0.3,  999.0,   -1.1,  999.0,  999.0,   -0.5,  999.0,  999.0,  999.0,    0.2,   -0.4,  999.0,  999.0,  999.0,  999.0,  999.0,    0.5,  999.0,  999.0,  999.0
1994/08/26 12:05,    6.0,    6.4,    6.2,    7.5,    8.1,    6.6,    2.2,   -0.2,    0.1,    0.7,    1.3,    0.7,    0.7,    0.3,   -0.3,   -0.8,   -0.7,   -0.3,    0.4,    0.9,    1.2,   -0.1,    0.3,   -0.1,    0.5,    1.4,    2.5,    2.9,    2.5,    1.2,    0.9,    1.1,    1.3,    0.9,    0.7,    1.0,    1.7,    2.2,    3.0,    3.2,    2.7,    3.3,    1.6,    0.7,   -0.3,   -0.9,   -1.2,   -1.9,   -1.9,   -2.3,   -2.3,   -2.3,   -1.8,   -2.6,   -3.0,   -3.1,   -4.0,   -3.5,   -2.3,    0.1,  999.0,   -1.5,   -1.0,  999.0,  999.0,  999.0,   -1.9,  999.0,  999.0,   -6.7,  999.0,  999.0,  999.0,  999.0,   -0.2,    0.8,  999.0,   -2.3,  999.0,  999.0,   -4.6,   -6.8,   -8.3,   -3.4,   -1.9,   -1.3,  999.0,  999.0,  999.0,  999.0,  999.0,   -1.4,   -3.4,   -0.8,  999.0,   -1.9,  999.0,  999.0,  999.0,  999.0,  999.0,    1.0,  999.0,  999.0,  999.0,  999.0,  999.0,  999.0,  999.0,  999.0,  999.0,  999.0,  999.0,  999.0,  999.0,  999.0,  999.0,  999.0,  999.0,  999.0
1994/08/26 12:15,    3.6,    4.0,    4.3,    5.4,    5.7,    4.5,    1.2,    0.4,    0.7,    1.6,    2.4,    1.6,    1.3,    1.0,    0.4,    0.1,   -0.4,   -0.4,   -0.4,    0.3,    0.8,    0.6,   -0.2,   -0.4,    0.1,    0.9,    2.0,    2.2,    1.8,    1.1,    0.8,    0.9,    0.8,    0.1,   -0.4,    0.6,    1.1,    1.4,    2.6,    2.2,    2.2,    2.5,    1.2,    0.7,    0.6,   -0.6,   -1.2,   -1.6,   -1.9,   -1.6,   -1.9,   -1.6,   -2.0,   -2.8,   -2.7,   -3.2,   -3.7,   -4.2,   -2.0,    1.2,   -0.0,   -1.4,   -1.3,   -0.9,  999.0,    0.6,    0.4,   -0.8,   -3.5,   -5.8,   -7.3,   -5.5,  999.0,   -2.6,  999.0,  999.0,   -1.8,  999.0,   -2.1,   -2.2,   -6.7,   -7.5,  999.0,   -3.3,   -0.4,   -1.2,  999.0,  999.0,  999.0,  999.0,  999.0,   -2.4,   -4.4,   -4.1,  999.0,  999.0,   -1.5,   -2.0,   -0.2,  999.0,  999.0,    0.3,  999.0,  999.0,   -4.7,   -0.5,  999.0,   -1.2,   -1.5,  999.0,   -0.8,  999.0,  999.0,  999.0,  999.0,  999.0,  999.0,  999.0,  999.0,  999.0
1994/08/26 12:25,    2.7,    2.7,    2.9,    2.9,    4.1,    2.8,    1.3,    0.4,    0.9,    2.4,    3.7,    1.9,    0.9,    0.7,    0.2,   -0.2,   -0.7,   -0.2,    0.2,    0.9,    1.1,    0.9,    0.2,   -0.1,    0.0,    0.6,    1.9,    2.1,    1.2,    0.7,    0.4,    0.2,    0.6,    0.2,   -0.4,    0.7,    0.9,    1.4,    1.9,    1.1,    1.5,    2.4,    0.2,    0.0,   -0.8,   -1.1,   -1.1,   -1.7,   -2.7,   -1.3,   -1.2,    2.3,   -1.6,   -1.9,   -2.1,   -3.1,   -4.5,   -3.1,  999.0,  999.0,   -1.5,   -1.2,  999.0,  999.0,    0.3,  999.0,  999.0,  999.0,  999.0,  999.0,  999.0,  999.0,  999.0,    1.2,  999.0,    0.3,  999.0,  999.0,    0.3,  999.0,   -7.1,   -5.0,   -9.1,   -6.0,   -3.1,  999.0,  999.0,   -0.5,  999.0,  999.0,  999.0,  999.0,   -0.3,   -2.9,  999.0,  999.0,  999.0,    2.4,    2.1,  999.0,  999.0,  999.0,  999.0,  999.0,  999.0,  999.0,  999.0,  999.0,  999.0,  999.0,  999.0,  999.0,    0.8,  999.0,  999.0,  999.0,  999.0,   -0.7,  999.0,  999.0
1994/08/26 12:35,    1.8,    1.5,    2.1,    2.6,    3.7,    2.1,    1.9,    0.9,    0.3,    3.0,    3.2,    1.9,    1.1,    1.0,    0.4,   -0.3,   -0.6,   -0.1,   -0.1,    0.5,    0.4,    0.6,   -0.2,   -0.6,    0.0,    0.8,    2.3,    2.6,    2.3,    1.8,    1.2,    1.4,    1.0,    0.2,    0.0,    0.7,    0.4,    1.5,    2.1,    1.4,    2.0,    2.2,    1.0,    0.1,   -0.1,   -0.4,   -0.8,   -1.3,   -1.6,   -1.1,   -1.4,   -1.4,   -2.1,   -2.5,   -3.3,   -3.6,   -4.1,   -4.5,   -0.8,   -0.6,   -1.7,   -3.6,   -2.4,   -3.4,  999.0,   -1.7,   -0.8,   -1.5,   -3.7,   -2.4,   -4.0,  999.0,    0.6,   -2.9,   -2.0,  999.0,   -3.0,  999.0,  999.0,   -1.1,   -7.2,   -7.7,   -6.5,   -5.4,   -1.9,    1.0,  999.0,   -1.1,  999.0,    1.0,   -1.5,   -0.9,   -2.5,   -1.7,   -1.0,   -1.5,  999.0,   -2.4,   -0.8,  999.0,  999.0,  999.0,   -0.5,  999.0,   -2.6,   -6.3,   -5.6,  999.0,  999.0,   -0.8,   -0.1,   -2.6,    0.7,  999.0,    0.5,  999.0,  999.0,  999.0,  999.0,   -1.0
1994/08/26 12:45,    2.7,    3.2,    4.6,    4.9,    5.8,    5.7,    2.3,    1.7,    0.1,    0.7,    1.6,    0.7,    0.2,    0.0,    0.3,   -0.2,   -0.3,   -0.5,   -0.0,    0.5,    0.6,    0.9,    0.2,   -0.3,   -0.0,    0.9,    1.2,    1.9,    1.5,    1.3,    1.0,    1.2,    0.7,    0.0,   -0.1,   -0.5,    1.2,    2.3,    2.2,    2.0,    2.3,    2.7,    1.0,    0.3,   -0.0,   -0.1,   -0.8,   -1.5,   -2.0,   -1.7,   -2.0,   -0.9,   -2.1,   -2.6,   -2.5,   -3.2,   -3.9,   -3.9,  999.0,  999.0,  999.0,   -2.5,  999.0,   -1.3,  999.0,  999.0,  999.0,  999.0,   -3.6,  999.0,  999.0,  999.0,  999.0,  999.0,  999.0,   -0.7,  999.0,  999.0,   -4.2,  999.0,   -7.3,   -8.2,   -7.7,  999.0,   -1.6,   -1.6,  999.0,  999.0,  999.0,  999.0,  999.0,   -3.9,   -4.9,   -4.0,  999.0,  999.0,  999.0,  999.0,   -1.3,  999.0,  999.0,  999.0,  999.0,  999.0,  999.0,   -6.7,  999.0,  999.0,  999.0,  999.0,  999.0,  999.0,  999.0,  999.0,  999.0,  999.0,  999.0,  999.0,  999.0,  999.0
1994/08/26 12:55,   -2.3,    0.6,    2.4,    2.3,    1.1,    2.1,    0.9,    0.3,   -0.5,   -0.4,    1.8,    1.7,    0.4,    0.5,    0.3,   -0.5,   -0.3,   -0.4,   -0.3,    0.4,    0.4,    0.2,   -0.1,   -0.3,   -0.4,    0.1,    1.5,    1.6,    1.3,    1.4,    1.0,    0.9,    0.8,   -0.0,    0.2,    0.7,    1.6,    2.2,    2.4,    2.2,    1.7,    2.2,    0.0,    0.1,   -0.2,   -1.0,   -0.9,   -2.1,   -2.4,   -2.4,   -2.8,   -1.6,   -3.2,   -3.4,   -3.7,   -4.4,   -4.7,  999.0,  999.0,  999.0,  999.0,   -3.6,  999.0,   -1.7,  999.0,  999.0,  999.0,  999.0,  999.0,  999.0,  999.0,  999.0,  999.0,  999.0,  999.0,  999.0,  999.0,  999.0,  999.0,  999.0,   -7.3,   -7.5,   -7.6,  999.0,  999.0,  999.0,  999.0,  999.0,  999.0,  999.0,  999.0,   -2.8,  999.0,  999.0,  999.0,  999.0,  999.0,  999.0,  999.0,  999.0,  999.0,  999.0,  999.0,  999.0,  999.0,  999.0,   -6.6,  999.0,  999.0,  999.0,  999.0,  999.0,  999.0,  999.0,  999.0,  999.0,  999.0,  999.0,  999.0,  999.0
1994/08/26 13:05,    2.1,    0.2,    1.5,    2.1,    1.9,    2.1,    1.2,    0.2,    0.9,    3.1,    4.9,    3.8,    1.0,    0.8,    0.3,   -1.1,   -0.9,   -0.9,   -0.6,    0.3,    0.8,    0.6,   -0.1,   -0.2,   -0.1,    1.1,    1.8,    2.3,    1.3,    1.3,    0.6,    0.7,    0.5,   -0.7,   -0.1,    1.5,    2.1,    2.3,    2.6,    1.7,    2.8,    2.7,    0.9,    0.1,   -1.5,   -0.9,   -1.1,   -2.2,   -1.4,   -1.4,   -1.1,   -1.4,   -2.8,   -2.8,   -2.4,   -4.2,   -3.0,   -2.5,   -2.2,   -1.9,   -1.6,   -2.0,  999.0,    0.1,  999.0,    0.4,  999.0,   -0.5,   -0.9,   -3.3,  999.0,  999.0,  999.0,  999.0,  999.0,    0.0,  999.0,  999.0,   -2.6,   -2.6,   -6.8,   -8.9,   -5.2,   -4.9,  999.0,  999.0,  999.0,  999.0,  999.0,   -0.4,   -0.6,  999.0,    1.1,  999.0,   -1.0,   -0.3,  999.0,  999.0,  999.0,  999.0,  999.0,  999.0,  999.0,  999.0,  999.0,   -5.9,   -3.8,  999.0,  999.0,  999.0,  999.0,  999.0,  999.0,  999.0,  999.0,  999.0,  999.0,  999.0,  999.0,  999.0
1994/08/26 13:15,   -0.8,   -1.5,   -1.0,   -1.1,    0.5,    0.9,    1.9,    0.4,    1.4,    4.4,    5.5,    3.7,    1.5,    0.4,   -0.0,   -0.8,   -1.1,   -0.5,   -0.4,    0.2,    0.4,    0.4,    0.1,   -0.2,    0.0,    0.5,    2.0,    2.2,    1.3,    1.9,    1.2,    1.4,    0.9,    0.2,    0.5,    1.1,    1.8,    2.8,    2.8,    2.3,    3.1,    3.1,    0.9,    0.4,   -1.1,   -0.4,   -0.9,   -1.7,   -1.7,   -2.0,   -2.0,   -1.7,   -3.7,   -2.6,   -3.3,   -3.5,   -3.3,  999.0,    0.3,  999.0,  999.0,   -1.9,  999.0,   -0.9,  999.0,  999.0,  999.0,  999.0,  999.0,   -5.2,  999.0,   -2.8,  999.0,  999.0,  999.0,  999.0,   -0.0,  999.0,  999.0,  999.0,   -4.6,   -7.4,   -7.7,   -0.4,  999.0,  999.0,   -0.5,  999.0,  999.0,   -0.5,  999.0,   -0.9,  999.0,   -0.2,  999.0,    0.6,  999.0,  999.0,  999.0,  999.0,  999.0,    0.1,  999.0,  999.0,  999.0,  999.0,  999.0,  999.0,  999.0,  999.0,  999.0,  999.0,  999.0,   -0.0,   -0.7,  999.0,  999.0,  999.0,  999.0,  999.0
1994/08/26 13:25,    3.5,    1.5,    1.0,  999.0,    1.5,    1.7,    2.0,    0.9,    2.2,    4.3,    4.5,    2.7,    0.7,    0.3,    0.2,   -0.1,   -0.2,   -0.4,   -0.6,    0.1,    0.3,    0.8,   -0.2,   -0.1,   -0.0,    0.6,    2.3,    2.5,    2.3,    1.6,    1.4,    1.5,    1.2,    0.4,    0.1,    0.8,    1.2,    2.0,    2.4,    1.8,    2.7,    2.5,    2.3,    0.5,    0.0,   -0.5,   -0.6,   -1.8,   -2.0,   -2.2,   -2.9,   -2.5,   -3.8,   -4.1,   -3.5,   -4.1,   -4.3,  999.0,  999.0,  999.0,   -2.1,   -2.8,  999.0,  999.0,  999.0,  999.0,  999.0,  999.0,  999.0,  999.0,  999.0,  999.0,  999.0,  999.0,  999.0,  999.0,  999.0,  999.0,  999.0,  999.0,   -6.7,   -8.2,   -9.7,  999.0,  999.0,  999.0,  999.0,  999.0,  999.0,  999.0,  999.0,  999.0,  999.0,  999.0,  999.0,  999.0,  999.0,  999.0,  999.0,  999.0,  999.0,  -22.5,  999.0,  999.0,  999.0,  999.0,  999.0,  999.0,  999.0,  999.0,  999.0,  999.0,  999.0,  999.0,  999.0,  999.0,  999.0,  999.0,  999.0,  999.0
1994/08/26 13:35,    2.9,    2.9,    2.7,    1.6,    1.5,    1.6,    1.0,    0.3,    2.0,    4.3,    4.7,    2.9,    0.5,    0.4,   -0.0,   -0.8,   -0.1,   -0.0,    0.5,    0.9,    2.0,    1.1,    0.3,    0.1,    0.2,    1.0,    3.0,    3.3,    2.9,    2.3,    1.1,    1.8,    1.6,   -0.3,    0.1,    1.1,    1.4,    2.0,    2.3,    1.6,    2.6,    2.3,    2.9,    0.3,   -0.2,   -1.0,   -1.3,   -2.7,   -3.0,   -3.2,   -3.0,   -3.4,   -4.3,   -4.3,   -3.9,   -4.1,   -4.8,   -3.9,  999.0,  999.0,  999.0,   -1.2,  999.0,  999.0,  999.0,  999.0,  999.0,  999.0,  999.0,  999.0,  999.0,  999.0,  999.0,  999.0,  999.0,  999.0,  999.0,  999.0,  999.0,  999.0,   -6.3,   -8.1,  999.0,  999.0,  999.0,  999.0,  999.0,  999.0,  999.0,  999.0,  999.0,  999.0,  999.0,  999.0,  999.0,  999.0,  999.0,  999.0,  999.0,  999.0,  999.0,  999.0,  999.0,  999.0,  999.0,  999.0,  999.0,  999.0,  999.0,  999.0,  999.0,  999.0,  999.0,  999.0,  999.0,  999.0,  999.0,  999.0,  999.0,  999.0
1994/08/26 13:45,    2.3,    1.3,    1.5,    1.6,    2.5,    2.1,    2.0,    1.3,    2.3,    3.9,    4.5,    2.5,    0.3,    0.3,    0.2,   -0.7,   -0.3,   -0.1,    0.0,   -0.0,    1.0,    0.9,    0.5,    0.2,   -0.0,    0.7,    2.4,    2.7,    2.3,    1.2,    1.3,    1.6,    1.3,    0.8,    0.7,    1.2,    2.2,    3.1,    3.7,    3.0,    1.4,    2.9,    2.5,    0.5,    0.3,   -1.3,   -1.3,   -1.4,   -2.3,   -2.6,   -2.8,   -3.6,   -5.1,   -4.8,   -4.3,   -4.2,   -5.1,   -6.0,  999.0,  999.0,  999.0,   -6.7,   -1.7,  999.0,   -1.0,    1.1,   -2.2,  999.0,  999.0,  999.0,  999.0,  999.0,  999.0,   -1.2,  999.0,  999.0,  999.0,  999.0,   -2.6,   -4.3,   -6.1,   -8.6,   -7.2,  999.0,  999.0,  999.0,  999.0,  999.0,  999.0,  999.0,  999.0,  999.0,  999.0,  999.0,  999.0,  999.0,  999.0,  999.0,  999.0,  999.0,  999.0,  999.0,  999.0,  999.0,   -1.3,  999.0,  999.0,  999.0,  999.0,  999.0,  999.0,  999.0,  999.0,  999.0,  999.0,  999.0,  999.0,  999.0,  999.0,  999.0
1994/08/26 13:55,    3.5,    4.9,    2.5,    3.3,    3.4,    2.6,    1.4,    0.9,    1.8,    3.0,    2.6,    1.5,    0.7,    0.0,   -0.9,   -1.4,   -1.3,   -1.2,   -0.9,   -1.3,    0.9,    1.3,    1.0,    0.6,    0.4,    1.8,    2.5,    2.9,    2.5,    2.1,    1.4,    2.1,    1.8,    1.2,    1.0,    2.2,    1.6,    2.7,    3.1,    3.1,    2.9,    2.3,    2.1,    1.1,    0.1,   -0.3,   -0.8,   -1.2,   -1.7,   -1.9,   -2.0,   -2.9,   -4.8,   -5.6,   -4.8,   -4.5,   -4.4,   -4.9,  999.0,  999.0,  999.0,   -2.0,  999.0,  999.0,  999.0,  999.0,  999.0,   -2.7,  999.0,  999.0,  999.0,  999.0,   -8.5,  999.0,  999.0,  999.0,  999.0,  999.0,  999.0,   -5.8,   -8.5,  -10.5,  999.0,  999.0,  999.0,  999.0,  999.0,  999.0,  999.0,  999.0,  999.0,  999.0,  999.0,  999.0,  999.0,  999.0,  999.0,  999.0,  999.0,  999.0,  999.0,  999.0,  999.0,  999.0,  999.0,  999.0,  999.0,  999.0,  999.0,  999.0,  999.0,  999.0,  999.0,  999.0,  999.0,  999.0,  999.0,  999.0,  999.0,  999.0
1994/08/26 14:05,    4.5,    1.9,    2.8,    2.9,    2.5,    2.9,    2.6,    2.5,    3.7,    0.3,    1.1,    1.3,    0.5,   -1.2,   -0.5,   -0.6,   -1.3,   -0.4,    0.1,    0.4,    0.9,    1.0,    0.7,    0.1,   -0.1,    1.0,    2.3,    2.3,    1.7,    1.3,    2.0,    2.4,    2.9,    1.3,    0.2,    2.1,    2.4,    2.2,    3.2,    4.1,    2.8,    1.5,    1.4,    0.3,   -0.6,   -0.9,   -1.3,   -1.8,   -3.4,   -3.1,   -2.5,   -4.1,   -6.2,   -6.8,   -6.4,   -5.4,   -6.5,   -5.7,   -4.5,  999.0,  999.0,   -4.1,   -3.1,   -1.0,  999.0,  999.0,  999.0,  999.0,  999.0,  999.0,  999.0,  999.0,  999.0,  999.0,  999.0,   -0.2,  999.0,  999.0,   -2.2,   -8.4,   -9.8,  999.0,  999.0,  999.0,  999.0,  999.0,  999.0,  999.0,  999.0,  999.0,  999.0,   -3.2,  999.0,  999.0,  999.0,  999.0,  999.0,  999.0,  999.0,  999.0,  999.0,  999.0,  999.0,  999.0,  999.0,  999.0,  999.0,  999.0,  999.0,  999.0,  999.0,  999.0,  999.0,  999.0,  999.0,  999.0,  999.0,  999.0,  999.0,  999.0
1994/08/26 14:15,    3.6,    3.1,    3.3,    3.1,    1.5,    1.7,    2.2,    2.8,    1.8,    5.2,    4.8,    2.2,    0.6,   -0.8,   -0.3,   -0.7,   -1.2,   -0.7,    0.4,    0.7,    2.2,    1.3,    0.7,    0.7,    0.1,    1.4,    2.4,    2.0,    1.6,    1.5,    2.3,    2.2,    1.8,    1.2,    1.2,    2.5,    2.3,    2.7,    3.6,    3.2,    2.8,    2.4,    2.4,    0.4,   -0.1,   -0.6,   -1.0,   -1.2,   -1.9,   -1.8,   -1.9,   -4.0,   -5.4,   -5.5,   -5.4,   -4.2,   -5.0,   -4.4,  999.0,  999.0,   -2.0,   -2.5,  999.0,  999.0,  999.0,  999.0,   -2.6,   -2.4,  999.0,  999.0,  999.0,  999.0,  999.0,  999.0,  999.0,  999.0,  999.0,  999.0,  999.0,  999.0,   -7.9,   -8.1,   -4.1,  999.0,   -1.5,  999.0,   -0.6,  999.0,  999.0,  999.0,  999.0,  999.0,  999.0,  999.0,  999.0,  999.0,  999.0,  999.0,  999.0,  999.0,  999.0,  999.0,  999.0,  999.0,  999.0,  999.0,  999.0,   -3.3,  999.0,  999.0,  999.0,  999.0,  999.0,  999.0,  999.0,  999.0,  999.0,  999.0,  999.0,  999.0
1994/08/26 14:25,    4.4,    3.9,    3.4,    3.0,    1.9,    1.6,    1.9,    2.4,    3.4,    4.4,    4.5,    2.9,    0.8,    0.3,   -0.2,   -0.6,   -0.8,   -0.9,    0.2,    0.1,    1.3,    1.2,    0.7,    0.1,    0.1,    1.2,    2.6,    2.7,    2.2,    1.6,    2.4,    2.7,    2.3,    1.2,    0.6,    1.8,    2.0,    2.2,    2.9,    2.5,    2.9,    1.8,    1.9,    0.3,   -0.3,   -0.6,   -0.2,   -0.5,   -1.6,   -1.3,   -3.4,   -5.2,   -3.8,   -5.2,   -5.7,   -5.4,   -5.5,   -5.5,  999.0,  999.0,   -3.4,   -3.7,   -2.3,  999.0,  999.0,  999.0,  999.0,  999.0,  999.0,  999.0,  999.0,  999.0,  999.0,  999.0,  999.0,    1.3,  999.0,  999.0,  999.0,  999.0,   -9.5,  -10.7,  999.0,  999.0,  999.0,  999.0,  999.0,  999.0,  999.0,  999.0,  999.0,  999.0,  999.0,  999.0,  999.0,  999.0,  999.0,  999.0,  999.0,  999.0,  999.0,  999.0,  999.0,  999.0,  999.0,  999.0,  999.0,  999.0,  999.0,  999.0,  999.0,  999.0,  999.0,  999.0,  999.0,  999.0,  999.0,  999.0,  999.0,  999.0
1994/08/26 14:35,    3.7,    2.2,    1.9,    1.5,    0.9,    2.0,    1.0,    1.4,    2.2,    3.0,    3.1,    2.5,    1.2,    0.7,    0.1,    0.0,   -1.5,   -1.8,   -0.1,    0.4,    1.0,    0.5,    0.6,    0.3,    0.2,    0.7,    2.2,    2.9,    2.9,    2.2,    3.0,    3.4,    2.7,    1.3,    0.4,    1.3,    1.9,    2.1,    2.9,    2.8,    1.0,    2.3,    2.1,    0.5,   -0.8,   -0.6,   -1.5,   -2.2,   -2.6,   -3.1,   -3.0,   -4.8,   -6.0,   -5.0,   -5.3,   -5.6,   -5.2,   -5.5,  999.0,  999.0,  999.0,  999.0,  999.0,  999.0,   -0.8,  999.0,  999.0,  999.0,  999.0,  999.0,  999.0,  999.0,  999.0,  999.0,  999.0,  999.0,  999.0,  999.0,  999.0,  999.0,   -8.0,   -8.8,  999.0,   -3.0,  999.0,  999.0,  999.0,  999.0,  999.0,  999.0,  999.0,  999.0,  999.0,  999.0,  999.0,  999.0,  999.0,  999.0,  999.0,  999.0,  999.0,  999.0,  999.0,  999.0,  999.0,  999.0,  999.0,  999.0,  999.0,  999.0,  999.0,  999.0,  999.0,  999.0,  999.0,  999.0,  999.0,  999.0,  999.0,  999.0
1994/08/26 14:45,    2.7,    2.3,    2.6,    2.7,    0.8,   -0.7,   -0.6,    0.3,    3.3,    5.1,    5.3,    2.6,    0.9,    0.9,   -0.6,   -0.6,   -1.2,    0.0,    0.1,   -0.0,    0.8,    0.2,    0.2,   -0.1,   -0.1,    1.2,    2.1,    3.4,    2.9,    2.6,    2.8,    3.6,    3.0,    1.5,    1.3,    2.2,    2.5,    2.9,    3.1,    4.2,    2.9,    2.8,    1.0,    0.5,   -0.2,   -0.9,   -1.5,   -1.3,   -1.8,   -1.9,   -2.1,   -4.2,   -5.5,   -4.4,   -4.9,   -4.9,   -4.8,   -5.4,   -3.7,   -3.3,   -3.3,   -3.2,  999.0,   -1.9,  999.0,  999.0,   -3.8,  999.0,  999.0,  999.0,  999.0,  999.0,  999.0,  999.0,  999.0,  999.0,   -5.9,  999.0,  999.0,  999.0,   -8.5,  -10.7,   -5.8,   -4.0,   -3.7,  999.0,  999.0,  999.0,  999.0,  999.0,  999.0,  999.0,  999.0,  999.0,  999.0,  999.0,  999.0,  999.0,  999.0,  999.0,  999.0,  999.0,  999.0,  999.0,  999.0,  999.0,  999.0,  999.0,  999.0,  999.0,   -1.8,  999.0,  999.0,  999.0,  999.0,  999.0,  999.0,  999.0,  999.0,  999.0
1994/08/26 14:55,    4.1,    5.5,    3.9,    1.8,    0.8,   -0.5,    0.2,    1.0,    1.7,    3.6,    4.3,    3.3,    1.0,    0.7,   -0.0,   -1.2,   -2.3,   -2.1,   -0.3,   -0.3,    1.1,    0.8,    0.3,   -0.1,    0.8,    2.3,    3.5,    3.6,    3.9,    3.1,    3.3,    3.5,    3.2,    1.9,    0.5,    2.0,    2.9,    2.2,    2.6,    2.7,    2.3,    1.9,    0.5,   -0.6,   -0.6,   -1.1,   -2.0,   -2.7,   -2.8,   -3.5,   -4.6,   -5.5,   -5.7,   -4.7,   -5.3,   -4.9,   -4.5,   -4.6,   -3.6,   -2.9,   -1.8,   -3.2,   -2.0,   -2.1,  999.0,   -2.1,  999.0,  999.0,  999.0,   -7.7,  999.0,  999.0,  999.0,  999.0,  999.0,   -3.8,  999.0,  999.0,  999.0,  999.0,   -8.7,   -8.5,  999.0,  999.0,  999.0,  999.0,  999.0,  999.0,  999.0,  999.0,  999.0,  999.0,  999.0,  999.0,  999.0,  999.0,  999.0,  999.0,  999.0,  999.0,  999.0,  999.0,  999.0,  999.0,  999.0,  999.0,  999.0,  999.0,  999.0,  999.0,  999.0,  999.0,  999.0,  999.0,  999.0,  999.0,  999.0,  999.0,  999.0,  999.0
1994/08/26 15:05,    3.8,    4.2,    4.1,    3.3,    1.2,    0.4,   -0.1,    0.7,    2.0,    4.0,    3.7,    3.1,    1.6,    1.0,   -0.6,   -1.0,   -1.6,   -1.6,   -0.3,    0.2,   -0.3,    0.9,    0.8,    0.4,    0.3,    1.6,    2.8,    2.2,    2.4,    1.6,    2.3,    2.0,    1.7,    0.7,    0.6,    1.5,    1.8,    2.1,    2.5,    3.0,    2.6,    0.4,   -0.5,   -0.9,   -0.6,   -1.0,   -1.7,   -3.1,   -4.0,   -3.6,   -4.9,   -5.7,   -6.1,   -5.7,   -5.3,   -5.2,   -4.5,   -5.1,  999.0,  999.0,   -2.7,   -1.5,  999.0,  999.0,  999.0,   -1.6,  999.0,  999.0,  999.0,  999.0,  999.0,  999.0,  999.0,  999.0,  999.0,  999.0,  999.0,  999.0,  999.0,  999.0,   -9.6,  999.0,  999.0,   -4.1,   -3.7,  999.0,  999.0,  999.0,  999.0,  999.0,   -2.3,   -3.3,  999.0,   -0.4,  999.0,  999.0,  999.0,  999.0,  999.0,  999.0,  999.0,  999.0,  999.0,  999.0,  999.0,  999.0,  999.0,  999.0,  999.0,  999.0,  999.0,  999.0,  999.0,  999.0,  999.0,  999.0,  999.0,  999.0,  999.0,  999.0
1994/08/26 15:15,    3.1,    3.2,    1.5,    2.3,   -0.0,   -2.9,    0.7,   -0.2,    4.4,    5.3,    5.3,    4.2,    2.2,    0.3,   -0.1,   -0.4,   -2.0,   -1.8,   -0.4,   -0.1,    0.0,    0.1,    0.3,   -0.3,    0.8,    2.3,    3.2,    3.3,    2.5,    2.2,    1.8,    1.8,    1.8,    0.8,    0.5,    1.9,    1.6,    2.6,    3.0,    2.9,    2.7,    0.9,    0.1,   -0.2,   -0.5,   -0.8,   -1.4,   -1.6,   -1.7,   -2.7,   -4.0,   -5.3,   -5.1,   -5.0,   -5.4,   -5.0,   -4.2,   -4.5,  999.0,  999.0,   -2.3,   -1.9,  999.0,  999.0,  999.0,  999.0,  999.0,  999.0,  999.0,  999.0,  999.0,  999.0,  999.0,  999.0,  999.0,  999.0,  999.0,  999.0,  999.0,  999.0,  999.0,  999.0,  999.0,  999.0,  999.0,  999.0,  999.0,  999.0,  999.0,  999.0,  999.0,   -4.3,  999.0,  999.0,  999.0,  999.0,  999.0,  999.0,  999.0,  999.0,  999.0,  999.0,  999.0,  999.0,  999.0,  999.0,  999.0,  999.0,  999.0,  999.0,  999.0,  999.0,  999.0,  999.0,  999.0,  999.0,  999.0,  999.0,  999.0,  999.0
1994/08/26 15:25,    3.3,    3.8,    3.4,    3.8,    2.2,    0.2,    0.7,    2.6,    4.6,    4.4,    3.2,    2.5,    0.5,   -2.6,   -1.4,   -2.3,   -3.0,   -2.1,   -1.0,   -0.6,   -0.0,    0.1,    1.0,    0.4,    1.0,    1.9,    3.8,    3.9,    2.6,    2.5,    2.0,    1.9,    1.2,    0.5,    0.8,    1.8,    1.8,    1.9,    2.2,    2.3,    2.1,    0.2,    0.0,   -0.6,   -0.9,   -1.5,   -2.2,   -2.4,   -2.6,   -3.6,   -5.0,   -6.2,   -6.2,   -5.6,   -6.0,   -5.9,   -5.4,   -4.7,   -2.3,   -3.1,   -3.3,   -2.1,  999.0,  999.0,  999.0,  999.0,  999.0,  999.0,  999.0,  999.0,  999.0,  999.0,  999.0,  999.0,  999.0,  999.0,  999.0,  999.0,  999.0,  999.0,   -9.0,   -9.9,  999.0,  999.0,  999.0,  999.0,  999.0,  999.0,  999.0,  999.0,   -3.0,   -3.4,  999.0,  999.0,  999.0,  999.0,  999.0,  999.0,  999.0,  999.0,  999.0,  999.0,  999.0,  999.0,  999.0,  999.0,  999.0,  999.0,  999.0,  999.0,  999.0,  999.0,  999.0,  999.0,  999.0,  999.0,  999.0,  999.0,  999.0,  999.0
1994/08/26 15:35,    2.0,    4.0,    3.2,    2.7,    1.0,   -1.1,   -1.9,   -0.6,    2.4,    2.1,    2.3,    1.6,    0.4,   -0.5,    0.3,   -1.3,   -1.2,    0.4,    0.8,   -0.4,    0.8,    0.5,    0.5,   -0.3,   -0.3,    1.6,    2.3,    2.4,    1.5,    1.4,    1.4,    2.4,    1.3,    0.6,    1.7,    1.9,    1.3,    1.7,    2.0,    2.2,    0.9,   -0.2,    0.3,   -0.3,   -0.8,   -1.2,   -1.4,   -0.5,  999.0,   -2.3,   -3.8,   -4.7,   -4.1,   -3.9,   -5.0,   -4.7,   -4.4,   -3.7,   -4.0,  999.0,   -1.7,   -2.2,   -1.7,   -0.5,  999.0,  999.0,  999.0,  999.0,  999.0,  999.0,  999.0,  999.0,  999.0,  999.0,  999.0,  999.0,  999.0,  999.0,  999.0,  999.0,  999.0,  999.0,  999.0,   -7.3,  999.0,  999.0,  999.0,  999.0,  999.0,  999.0,   -3.0,   -3.8,  999.0,  999.0,  999.0,  999.0,  999.0,  999.0,  999.0,  999.0,  999.0,  999.0,  999.0,  999.0,  999.0,  999.0,  999.0,  999.0,  999.0,  999.0,  999.0,  999.0,  999.0,  999.0,  999.0,  999.0,  999.0,  999.0,  999.0,  999.0
1994/08/26 15:45,    2.5,    2.4,    1.7,    1.3,    0.9,   -0.0,   -0.0,   -0.1,    1.0,    3.5,    4.5,    1.4,    0.4,    0.9,   -0.8,   -1.5,   -1.7,   -1.7,   -0.1,    0.2,    0.8,    0.8,    1.0,    0.4,    0.9,    3.3,    3.9,    3.5,    2.4,    2.2,    1.7,    1.9,    1.3,    0.7,    1.2,    1.6,    1.7,    2.1,    2.4,    2.7,    1.1,    0.3,    0.4,   -0.7,   -1.0,   -1.9,   -2.9,   -2.4,  999.0,   -4.1,   -4.2,   -4.4,   -5.3,   -5.1,   -4.9,   -4.6,   -4.7,   -4.9,  999.0,  999.0,  999.0,  999.0,  999.0,  999.0,  999.0,    1.0,  999.0,  999.0,  999.0,  999.0,  999.0,  999.0,  999.0,  999.0,  999.0,    1.3,  999.0,   -3.9,   -4.7,  999.0,   -9.5,   -8.5,  999.0,  999.0,  999.0,  999.0,  999.0,  999.0,  999.0,  999.0,   -5.2,   -4.9,  999.0,  999.0,  999.0,  999.0,  999.0,  999.0,  999.0,  999.0,  999.0,  999.0,  999.0,  999.0,  999.0,  999.0,  999.0,  999.0,  999.0,  999.0,  999.0,  999.0,  999.0,  999.0,  999.0,  999.0,  999.0,  999.0,  999.0,  999.0
1994/08/26 15:55,    3.0,    4.1,    4.9,    4.0,    3.4,    1.3,   -0.1,   -0.7,    0.6,    2.7,    3.0,    2.1,    0.2,   -1.4,   -1.7,   -1.2,   -0.8,   -1.3,   -0.6,   -0.3,   -0.1,    0.0,    0.5,   -0.1,    0.4,    2.4,    3.8,    3.8,    3.3,    2.6,    2.4,    2.4,    2.2,    1.1,    1.7,    2.5,    1.7,    0.9,    1.0,    0.7,    0.8,   -1.2,   -0.4,   -0.2,   -1.3,   -1.5,   -1.6,   -1.3,   -2.6,   -3.0,   -5.1,   -4.9,   -6.4,   -5.1,   -5.4,   -4.3,   -5.1,   -4.8,  999.0,  999.0,   -3.9,   -2.4,   -2.2,  999.0,   -2.8,  999.0,  999.0,  999.0,  999.0,  999.0,  999.0,  999.0,  999.0,  999.0,  999.0,  999.0,  999.0,   -8.4,  999.0,  999.0,  -10.4,  999.0,  999.0,   -6.5,  999.0,  999.0,  999.0,  999.0,   -0.5,   -3.6,   -4.2,  999.0,  999.0,  999.0,  999.0,  999.0,  999.0,  999.0,  999.0,  999.0,  999.0,  999.0,  999.0,  999.0,  999.0,  999.0,  999.0,  999.0,  999.0,  999.0,  999.0,  999.0,  999.0,  999.0,  999.0,  999.0,  999.0,  999.0,  999.0,  999.0
1994/08/26 16:05,    3.3,    3.0,    1.4,    3.5,    3.6,    2.1,   -0.4,   -0.5,   -0.2,    1.1,    1.6,    2.5,    0.0,   -0.9,   -0.6,   -1.3,   -1.2,   -1.2,   -0.1,    0.3,    1.0,    0.9,    0.3,    0.4,    0.1,    1.4,    3.0,    3.0,    1.6,    1.1,    1.3,    2.2,    1.3,    1.5,    1.7,    2.5,    1.9,    2.2,    2.2,    2.0,    1.2,   -0.8,   -0.0,   -0.4,   -0.8,   -0.5,   -1.2,   -1.0,   -1.8,   -3.8,   -4.8,   -5.2,   -5.6,   -5.1,   -4.8,   -5.2,   -4.8,   -5.9,  999.0,  999.0,  999.0,  999.0,  999.0,  999.0,  999.0,  999.0,  999.0,  999.0,  999.0,  999.0,  999.0,  999.0,  999.0,  999.0,  999.0,  999.0,  999.0,  999.0,  999.0,  999.0,  999.0,  999.0,  999.0,  999.0,  999.0,  999.0,  999.0,  999.0,  999.0,  999.0,  999.0,  999.0,  999.0,  999.0,  999.0,  999.0,  999.0,  999.0,  999.0,  999.0,   -0.7,  999.0,  999.0,  999.0,  999.0,  999.0,  999.0,  999.0,  999.0,  999.0,  999.0,  999.0,  999.0,  999.0,  999.0,  999.0,  999.0,  999.0,  999.0,  999.0
1994/08/26 16:15,    3.4,    2.5,    3.5,    3.3,    2.6,    1.9,    0.7,    0.4,    0.4,    1.8,    3.4,    2.1,    0.2,   -0.7,   -1.5,   -2.2,   -2.8,   -1.4,   -0.2,    0.0,    0.1,    0.3,    0.4,    0.4,   -0.0,    0.9,    2.0,    2.1,    1.4,    1.7,    1.7,    1.2,    0.9,    1.9,    3.0,    1.8,    1.6,    1.9,    0.8,    1.7,    0.8,    0.0,   -0.4,   -0.2,   -0.4,   -0.6,   -1.5,   -1.9,   -1.7,   -4.5,   -5.2,   -6.6,   -5.9,   -5.6,   -5.2,   -5.1,   -4.9,   -5.4,  999.0,  999.0,   -4.0,   -2.6,  999.0,  999.0,  999.0,  999.0,  999.0,  999.0,  999.0,  999.0,  999.0,  999.0,  999.0,  999.0,  999.0,  999.0,   -5.7,  999.0,   -2.0,  999.0,  -10.4,  999.0,  999.0,  999.0,  999.0,  999.0,  999.0,  999.0,  999.0,  999.0,  999.0,   -4.6,  999.0,  999.0,  999.0,  999.0,  999.0,  999.0,  999.0,  999.0,  999.0,  999.0,  999.0,  999.0,  999.0,  999.0,  999.0,  999.0,  999.0,  999.0,  999.0,  999.0,  999.0,  999.0,  999.0,  999.0,  999.0,  999.0,  999.0,  999.0
1994/08/26 16:25,    2.2,    2.8,    3.2,    3.8,    3.4,    2.8,    1.0,    1.1,    0.9,    2.1,    3.2,    2.0,    0.2,   -0.8,   -1.3,   -1.6,   -1.2,   -1.0,   -0.1,    0.3,    0.5,    0.0,    0.1,   -0.2,   -0.3,    0.9,    1.9,    1.8,    1.0,    1.4,    1.5,    1.6,    0.7,    2.6,    3.7,    3.1,    3.4,    3.7,    3.9,    3.6,    3.1,    1.5,    0.4,    0.3,    0.4,    0.3,   -0.2,    0.1,  999.0,   -3.1,   -3.9,   -4.6,   -4.6,   -4.9,   -4.2,   -3.9,   -4.2,   -4.3,   -4.0,   -4.6,   -2.7,   -2.6,   -2.3,  999.0,   -3.5,  999.0,  999.0,  999.0,  999.0,  999.0,  999.0,  999.0,  999.0,  999.0,  999.0,  999.0,   -3.6,  999.0,  999.0,  999.0,  -10.4,  999.0,   -9.5,   -6.6,   -3.9,    1.5,  999.0,  999.0,  999.0,  999.0,   -4.2,   -5.9,  999.0,  999.0,  999.0,  999.0,  999.0,  999.0,  999.0,  999.0,  999.0,  999.0,  999.0,  999.0,  999.0,  999.0,    9.3,  999.0,  999.0,  999.0,  999.0,  999.0,  999.0,    1.3,  999.0,  999.0,  999.0,  999.0,  999.0,    1.2
1994/08/26 16:35,    2.1,    3.6,    4.8,    5.2,    3.9,    2.7,    1.8,    1.8,    1.3,    1.3,    2.5,    2.9,    1.3,   -0.5,   -1.1,   -2.2,   -2.4,   -1.8,   -0.7,   -0.5,   -0.3,    0.3,   -0.1,    0.0,   -0.2,    0.7,    1.3,    1.4,    1.0,    0.7,    1.3,    1.2,    0.3,    1.6,    2.4,    1.2,    2.5,    2.7,    2.0,    2.3,    1.2,    1.1,   -0.2,   -0.3,    0.3,   -0.9,   -1.3,   -1.1,   -1.4,   -3.9,   -4.6,   -5.1,   -5.1,   -5.7,   -5.4,   -4.9,   -5.1,   -4.6,   -2.8,   -4.5,   -4.0,   -3.8,  999.0,  999.0,  999.0,   -1.9,  999.0,  999.0,  999.0,   -9.1,  999.0,  999.0,  999.0,  999.0,  999.0,   -7.0,   -6.2,  999.0,  999.0,   -0.1,  999.0,  999.0,   -9.5,   -6.1,  999.0,  999.0,  999.0,  999.0,   -1.0,   -3.4,   -4.1,   -5.5,   -4.4,  999.0,   -0.2,  999.0,  999.0,  999.0,  999.0,  999.0,  999.0,  999.0,  999.0,  999.0,  999.0,  999.0,    0.2,  999.0,  999.0,  999.0,   -0.2,  999.0,  999.0,  999.0,   -0.6,   -1.9,  999.0,  999.0,  999.0,  999.0
1994/08/26 16:45,    3.1,    3.6,    4.2,    3.6,    4.3,    1.8,    1.1,    1.2,    1.2,    1.2,    2.1,    1.9,    0.2,   -0.4,   -0.8,   -1.9,   -1.7,   -1.5,   -0.1,    0.3,    0.8,    0.2,   -0.1,   -0.1,   -0.0,    1.4,    2.1,    2.5,    1.9,    1.7,    2.5,    1.6,    1.3,    1.3,    1.5,    1.1,    1.0,    1.2,    1.8,    1.7,    0.6,    0.2,   -0.4,    0.1,   -0.8,   -1.0,   -1.1,   -1.4,   -0.6,   -2.0,   -2.0,   -2.3,   -3.2,   -5.4,   -4.1,   -4.4,   -4.7,   -3.4,  999.0,   -2.6,   -1.5,  999.0,  999.0,  999.0,  999.0,  999.0,  999.0,  999.0,  999.0,    0.5,  999.0,  999.0,    0.2,  999.0,  999.0,  999.0,  999.0,  999.0,  999.0,  999.0,   -9.9,  999.0,  999.0,  999.0,  999.0,  999.0,  999.0,   -1.5,  999.0,  999.0,   -4.1,   -4.6,  999.0,  999.0,  999.0,  999.0,  999.0,  999.0,  999.0,  999.0,  999.0,  999.0,  999.0,   -0.9,  999.0,    0.3,  999.0,  999.0,  999.0,  999.0,  999.0,   -0.9,    0.2,  999.0,  999.0,  999.0,  999.0,  999.0,  999.0,  999.0
1994/08/26 16:55,    1.1,    2.1,    3.0,    2.9,    1.7,    2.2,    3.2,    2.0,    2.2,    2.1,    3.1,    2.4,    1.1,   -0.0,   -1.0,   -2.1,   -0.6,   -0.7,   -0.3,   -0.3,    0.3,    0.3,    0.3,    0.6,    0.5,    1.3,    1.4,    2.6,    1.5,    1.4,    1.5,    1.8,    1.1,    0.9,    1.4,   -0.3,    1.6,    1.5,    1.9,    1.6,    1.4,    0.4,   -0.2,   -0.5,   -1.3,   -1.0,   -1.5,   -0.1,   -3.4,   -4.2,   -4.4,   -5.1,   -5.2,   -5.3,   -5.9,   -6.1,   -4.7,   -5.4,  999.0,   -4.1,   -3.5,  999.0,  999.0,  999.0,  999.0,  999.0,  999.0,  999.0,  999.0,  999.0,  999.0,  999.0,  999.0,  999.0,  999.0,  999.0,  999.0,  999.0,  999.0,  999.0,  999.0,  999.0,  999.0,  999.0,  999.0,  999.0,  999.0,  999.0,  999.0,  999.0,   -2.9,   -5.0,  999.0,   -0.9,  999.0,  999.0,  999.0,  999.0,  999.0,  999.0,  999.0,  999.0,  999.0,  999.0,  999.0,  999.0,  999.0,  999.0,  999.0,  999.0,  999.0,  999.0,  999.0,  999.0,  999.0,  999.0,  999.0,  999.0,  999.0,  999.0
1994/08/26 17:05,    1.0,  999.0,    1.2,    2.0,    1.6,    1.2,    1.5,    1.6,    1.6,    2.3,    3.6,    1.5,    0.1,   -0.7,   -1.7,   -1.4,   -1.2,    0.0,   -0.0,    0.6,    1.5,    1.5,    1.4,    0.4,    1.0,    2.1,    3.0,    3.1,    2.7,    2.3,    2.6,    2.3,    2.1,    1.1,    1.7,    1.5,    0.7,    0.7,    1.4,    1.1,    0.9,   -0.3,   -0.9,   -1.0,   -1.0,   -0.4,   -0.8,  999.0,   -0.8,   -2.2,   -2.8,   -3.6,   -4.6,   -3.2,   -3.6,   -4.3,   -4.0,   -3.5,  999.0,   -3.2,   -2.3,   -1.9,  999.0,  999.0,   -2.1,   -2.3,   -6.7,  999.0,  999.0,  999.0,  999.0,  999.0,  999.0,  999.0,  999.0,  999.0,  999.0,  999.0,   -1.2,  999.0,  999.0,  999.0,  999.0,  999.0,  999.0,  999.0,  999.0,   -0.7,  999.0,   -3.8,  999.0,  999.0,  999.0,  999.0,  999.0,  999.0,  999.0,  999.0,  999.0,  999.0,  999.0,  999.0,  999.0,  999.0,  999.0,  999.0,  999.0,  999.0,  999.0,  999.0,  999.0,    0.0,  999.0,  999.0,  999.0,  999.0,  999.0,  999.0,  999.0,  999.0
